| time (UTC) | temp C | wind direction | speed KPH | gust KPH | rain 1hr cm | rain 24hr cm | rain mn cm | humidity % | barometer mb |
| 20260508025904 | 21 | 14 | 6.4 | 11.3 | 0.00 | 0.00 | 0.00 | 77 | 1012.4 |
| 20260508025802 | 21 | 14 | 6.4 | 9.7 | 0.00 | 0.00 | 0.00 | 77 | 1012.4 |
| 20260508025703 | 21 | 13 | 4.8 | 9.7 | 0.00 | 0.00 | 0.00 | 76 | 1012.4 |
| 20260508025603 | 21 | 0 | 6.4 | 9.7 | 0.00 | 0.00 | 0.00 | 76 | 1012.4 |
| 20260508025505 | 21 | 358 | 4.8 | 9.7 | 0.00 | 0.00 | 0.00 | 76 | 1012.5 |
| 20260508025404 | 21 | 358 | 4.8 | 11.3 | 0.00 | 0.00 | 0.00 | 76 | 1012.5 |
| 20260508025305 | 21 | 358 | 4.8 | 14.5 | 0.00 | 0.00 | 0.00 | 76 | 1012.4 |
| 20260508025203 | 21 | 358 | 4.8 | 14.5 | 0.00 | 0.00 | 0.00 | 76 | 1012.4 |
| 20260508025102 | 21 | 358 | 4.8 | 14.5 | 0.00 | 0.00 | 0.00 | 76 | 1012.3 |
| 20260508025004 | 21 | 23 | 4.8 | 14.5 | 0.00 | 0.00 | 0.00 | 76 | 1012.3 |
| 20260508024902 | 21 | 27 | 4.8 | 14.5 | 0.00 | 0.00 | 0.00 | 76 | 1012.3 |
| 20260508024803 | 21 | 13 | 4.8 | 14.5 | 0.00 | 0.00 | 0.00 | 76 | 1012.2 |
| 20260508024703 | 21 | 14 | 4.8 | 14.5 | 0.00 | 0.00 | 0.00 | 76 | 1012.1 |
| 20260508024603 | 21 | 20 | 6.4 | 14.5 | 0.00 | 0.00 | 0.00 | 76 | 1012.0 |
| 20260508024503 | 21 | 25 | 9.7 | 14.5 | 0.00 | 0.00 | 0.00 | 76 | 1012.0 |
| 20260508024402 | 21 | 42 | 9.7 | 14.5 | 0.00 | 0.00 | 0.00 | 76 | 1011.9 |
| 20260508024304 | 22 | 8 | 8.0 | 14.5 | 0.00 | 0.00 | 0.00 | 76 | 1011.9 |
| 20260508024202 | 22 | 47 | 6.4 | 11.3 | 0.00 | 0.00 | 0.00 | 76 | 1012.0 |
| 20260508024102 | 22 | 17 | 8.0 | 11.3 | 0.00 | 0.00 | 0.00 | 76 | 1012.0 |
| 20260508024004 | 22 | 20 | 8.0 | 11.3 | 0.00 | 0.00 | 0.00 | 76 | 1012.0 |
| 20260508023903 | 22 | 21 | 6.4 | 11.3 | 0.00 | 0.00 | 0.00 | 76 | 1012.0 |
| 20260508023801 | 22 | 38 | 6.4 | 11.3 | 0.00 | 0.00 | 0.00 | 76 | 1012.1 |
| 20260508023704 | 22 | 23 | 6.4 | 11.3 | 0.00 | 0.00 | 0.00 | 76 | 1012.1 |
| 20260508023602 | 22 | 20 | 8.0 | 11.3 | 0.00 | 0.00 | 0.00 | 76 | 1012.1 |
| 20260508023502 | 22 | 28 | 8.0 | 11.3 | 0.00 | 0.00 | 0.00 | 76 | 1012.0 |
| 20260508023402 | 22 | 27 | 4.8 | 11.3 | 0.00 | 0.00 | 0.00 | 76 | 1012.0 |
| 20260508023302 | 22 | 28 | 6.4 | 11.3 | 0.00 | 0.00 | 0.00 | 76 | 1011.9 |
| 20260508023203 | 22 | 14 | 8.0 | 11.3 | 0.00 | 0.00 | 0.00 | 76 | 1011.8 |
| 20260508023103 | 22 | 18 | 8.0 | 11.3 | 0.00 | 0.00 | 0.00 | 76 | 1011.8 |
| 20260508023003 | 22 | 20 | 6.4 | 11.3 | 0.00 | 0.00 | 0.00 | 76 | 1012.0 |
| 20260508022902 | 22 | 25 | 6.4 | 9.7 | 0.00 | 0.00 | 0.00 | 76 | 1011.9 |
| 20260508022803 | 22 | 10 | 8.0 | 9.7 | 0.00 | 0.00 | 0.00 | 76 | 1012.0 |
| 20260508022702 | 22 | 0 | 8.0 | 9.7 | 0.00 | 0.00 | 0.00 | 76 | 1011.9 |
| 20260508022603 | 22 | 37 | 6.4 | 9.7 | 0.00 | 0.00 | 0.00 | 76 | 1012.0 |
| 20260508022503 | 22 | 21 | 6.4 | 8.0 | 0.00 | 0.00 | 0.00 | 76 | 1012.0 |
| 20260508022402 | 22 | 14 | 4.8 | 8.0 | 0.00 | 0.00 | 0.00 | 76 | 1012.0 |
| 20260508022307 | 22 | 8 | 3.2 | 8.0 | 0.00 | 0.00 | 0.00 | 76 | 1012.1 |
| 20260508022203 | 22 | 0 | 3.2 | 8.0 | 0.00 | 0.00 | 0.00 | 76 | 1012.1 |
| 20260508022103 | 22 | 0 | 4.8 | 8.0 | 0.00 | 0.00 | 0.00 | 76 | 1012.1 |
| 20260508022004 | 22 | 0 | 4.8 | 8.0 | 0.00 | 0.00 | 0.00 | 76 | 1012.2 |
| 20260508021903 | 22 | 0 | 4.8 | 9.7 | 0.00 | 0.00 | 0.00 | 76 | 1012.2 |
| 20260508021804 | 22 | 0 | 4.8 | 9.7 | 0.00 | 0.00 | 0.00 | 76 | 1012.2 |
| 20260508021703 | 22 | 0 | 4.8 | 9.7 | 0.00 | 0.00 | 0.00 | 76 | 1012.2 |
| 20260508021603 | 22 | 0 | 4.8 | 9.7 | 0.00 | 0.00 | 0.00 | 75 | 1012.1 |
| 20260508021502 | 22 | 358 | 4.8 | 9.7 | 0.00 | 0.00 | 0.00 | 76 | 1012.1 |
| 20260508021402 | 22 | 0 | 4.8 | 9.7 | 0.00 | 0.00 | 0.00 | 75 | 1012.0 |
| 20260508021303 | 22 | 0 | 6.4 | 9.7 | 0.00 | 0.00 | 0.00 | 75 | 1012.1 |
| 20260508021203 | 22 | 0 | 4.8 | 9.7 | 0.00 | 0.00 | 0.00 | 75 | 1012.1 |
| 20260508021103 | 22 | 355 | 6.4 | 9.7 | 0.00 | 0.00 | 0.00 | 75 | 1012.1 |
| 20260508021002 | 22 | 358 | 6.4 | 9.7 | 0.00 | 0.00 | 0.00 | 75 | 1012.1 |
| 20260508020904 | 22 | 358 | 6.4 | 9.7 | 0.00 | 0.00 | 0.00 | 75 | 1012.1 |
| 20260508020802 | 22 | 357 | 6.4 | 8.0 | 0.00 | 0.00 | 0.00 | 75 | 1012.0 |
| 20260508020701 | 22 | 0 | 4.8 | 8.0 | 0.00 | 0.00 | 0.00 | 75 | 1012.0 |
| 20260508020603 | 22 | 8 | 4.8 | 8.0 | 0.00 | 0.00 | 0.00 | 75 | 1011.9 |
| 20260508020504 | 22 | 3 | 4.8 | 8.0 | 0.00 | 0.00 | 0.00 | 75 | 1011.9 |
| 20260508020401 | 22 | 1 | 6.4 | 8.0 | 0.00 | 0.00 | 0.00 | 75 | 1011.9 |
| 20260508020303 | 22 | 3 | 4.8 | 8.0 | 0.00 | 0.00 | 0.00 | 75 | 1011.9 |
| 20260508020203 | 22 | 6 | 3.2 | 6.4 | 0.00 | 0.00 | 0.00 | 76 | 1012.0 |
| 20260508020002 | 22 | 354 | 3.2 | 8.0 | 0.00 | 0.00 | 0.00 | 75 | 1012.0 |
| 20260508015903 | 22 | 354 | 3.2 | 8.0 | 0.00 | 0.00 | 0.00 | 76 | 1012.0 |
| 20260508015803 | 22 | 354 | 3.2 | 8.0 | 0.00 | 0.00 | 0.00 | 76 | 1012.0 |
| 20260508015702 | 22 | 354 | 4.8 | 8.0 | 0.00 | 0.00 | 0.00 | 76 | 1011.9 |
| 20260508015603 | 22 | 353 | 4.8 | 8.0 | 0.00 | 0.00 | 0.00 | 76 | 1011.9 |
| 20260508015504 | 22 | 331 | 4.8 | 8.0 | 0.00 | 0.00 | 0.00 | 76 | 1011.8 |
| 20260508015403 | 22 | 4 | 4.8 | 8.0 | 0.00 | 0.00 | 0.00 | 76 | 1011.8 |
| 20260508015305 | 22 | 4 | 4.8 | 8.0 | 0.00 | 0.00 | 0.00 | 76 | 1011.8 |
| 20260508015203 | 22 | 4 | 4.8 | 8.0 | 0.00 | 0.00 | 0.00 | 76 | 1011.7 |
| 20260508015102 | 22 | 1 | 3.2 | 6.4 | 0.00 | 0.00 | 0.00 | 75 | 1011.7 |
| 20260508015004 | 22 | 0 | 3.2 | 6.4 | 0.00 | 0.00 | 0.00 | 75 | 1011.7 |
| 20260508014903 | 22 | 0 | 3.2 | 6.4 | 0.00 | 0.00 | 0.00 | 75 | 1011.7 |
| 20260508014802 | 22 | 0 | 3.2 | 6.4 | 0.00 | 0.00 | 0.00 | 75 | 1011.8 |
| 20260508014703 | 22 | 1 | 3.2 | 6.4 | 0.00 | 0.00 | 0.00 | 75 | 1011.8 |
| 20260508014604 | 22 | 3 | 4.8 | 6.4 | 0.00 | 0.00 | 0.00 | 75 | 1011.8 |
| 20260508014504 | 22 | 3 | 4.8 | 6.4 | 0.00 | 0.00 | 0.00 | 75 | 1011.8 |
| 20260508014402 | 22 | 3 | 4.8 | 6.4 | 0.00 | 0.00 | 0.00 | 75 | 1011.8 |
| 20260508014303 | 22 | 3 | 4.8 | 6.4 | 0.00 | 0.00 | 0.00 | 75 | 1011.7 |
| 20260508014203 | 22 | 3 | 4.8 | 6.4 | 0.00 | 0.00 | 0.00 | 75 | 1011.8 |
| 20260508014103 | 22 | 4 | 4.8 | 6.4 | 0.00 | 0.00 | 0.00 | 75 | 1011.7 |
| 20260508014003 | 22 | 4 | 3.2 | 6.4 | 0.00 | 0.00 | 0.00 | 75 | 1011.7 |
| 20260508013902 | 22 | 3 | 4.8 | 9.7 | 0.00 | 0.00 | 0.00 | 75 | 1011.7 |
| 20260508013802 | 22 | 4 | 4.8 | 9.7 | 0.00 | 0.00 | 0.00 | 75 | 1011.7 |
| 20260508013704 | 22 | 0 | 4.8 | 9.7 | 0.00 | 0.00 | 0.00 | 75 | 1011.8 |
| 20260508013602 | 22 | 0 | 4.8 | 9.7 | 0.00 | 0.00 | 0.00 | 74 | 1011.8 |
| 20260508013502 | 22 | 0 | 4.8 | 9.7 | 0.00 | 0.00 | 0.00 | 75 | 1011.8 |
| 20260508013402 | 22 | 0 | 3.2 | 9.7 | 0.00 | 0.00 | 0.00 | 74 | 1011.8 |
| 20260508013302 | 22 | 0 | 3.2 | 11.3 | 0.00 | 0.00 | 0.00 | 75 | 1011.8 |
| 20260508013203 | 22 | 0 | 3.2 | 11.3 | 0.00 | 0.00 | 0.00 | 74 | 1011.7 |
| 20260508013103 | 22 | 38 | 4.8 | 11.3 | 0.00 | 0.00 | 0.00 | 75 | 1011.7 |
| 20260508013004 | 22 | 54 | 6.4 | 11.3 | 0.00 | 0.00 | 0.00 | 75 | 1011.6 |
| 20260508012902 | 23 | 37 | 6.4 | 14.5 | 0.00 | 0.00 | 0.00 | 75 | 1011.6 |
| 20260508012803 | 23 | 25 | 4.8 | 14.5 | 0.00 | 0.00 | 0.00 | 75 | 1011.5 |
| 20260508012702 | 23 | 30 | 4.8 | 14.5 | 0.00 | 0.00 | 0.00 | 75 | 1011.5 |
| 20260508012603 | 23 | 39 | 4.8 | 14.5 | 0.00 | 0.00 | 0.00 | 75 | 1011.5 |
| 20260508012503 | 23 | 39 | 6.4 | 14.5 | 0.00 | 0.00 | 0.00 | 75 | 1011.6 |
| 20260508012404 | 23 | 0 | 8.0 | 14.5 | 0.00 | 0.00 | 0.00 | 75 | 1011.7 |
| 20260508012306 | 23 | 42 | 6.4 | 14.5 | 0.00 | 0.00 | 0.00 | 76 | 1011.6 |
| 20260508012202 | 23 | 55 | 8.0 | 14.5 | 0.00 | 0.00 | 0.00 | 76 | 1011.6 |
| 20260508012104 | 23 | 47 | 8.0 | 14.5 | 0.00 | 0.00 | 0.00 | 76 | 1011.5 |
| 20260508012003 | 23 | 25 | 8.0 | 14.5 | 0.00 | 0.00 | 0.00 | 76 | 1011.6 |
| 20260508011902 | 23 | 31 | 6.4 | 9.7 | 0.00 | 0.00 | 0.00 | 75 | 1011.7 |
| 20260508011804 | 23 | 34 | 4.8 | 8.0 | 0.00 | 0.00 | 0.00 | 75 | 1011.7 |
| 20260508011703 | 23 | 14 | 4.8 | 8.0 | 0.00 | 0.00 | 0.00 | 75 | 1011.7 |
| 20260508011602 | 23 | 14 | 4.8 | 9.7 | 0.00 | 0.00 | 0.00 | 75 | 1011.8 |
| 20260508011503 | 23 | 27 | 4.8 | 9.7 | 0.00 | 0.00 | 0.00 | 75 | 1011.8 |
| 20260508011403 | 23 | 20 | 6.4 | 11.3 | 0.00 | 0.00 | 0.00 | 75 | 1011.8 |
| 20260508011302 | 23 | 18 | 4.8 | 11.3 | 0.00 | 0.00 | 0.00 | 75 | 1011.8 |
| 20260508011202 | 23 | 17 | 4.8 | 11.3 | 0.00 | 0.00 | 0.00 | 75 | 1011.8 |
| 20260508011103 | 23 | 7 | 4.8 | 14.5 | 0.00 | 0.00 | 0.00 | 75 | 1011.8 |
| 20260508011002 | 23 | 24 | 4.8 | 14.5 | 0.00 | 0.00 | 0.00 | 75 | 1011.8 |
| 20260508010902 | 23 | 0 | 4.8 | 14.5 | 0.00 | 0.00 | 0.00 | 75 | 1011.8 |
| 20260508010803 | 23 | 348 | 6.4 | 14.5 | 0.00 | 0.00 | 0.00 | 74 | 1011.7 |
| 20260508010702 | 23 | 0 | 4.8 | 14.5 | 0.00 | 0.00 | 0.00 | 75 | 1011.7 |
| 20260508010602 | 23 | 38 | 4.8 | 17.7 | 0.00 | 0.00 | 0.00 | 75 | 1011.7 |
| 20260508010502 | 23 | 38 | 6.4 | 17.7 | 0.00 | 0.00 | 0.00 | 75 | 1011.7 |
| 20260508010402 | 23 | 24 | 6.4 | 17.7 | 0.00 | 0.00 | 0.00 | 75 | 1011.8 |
| 20260508010302 | 23 | 6 | 8.0 | 17.7 | 0.00 | 0.00 | 0.00 | 75 | 1011.8 |
| 20260508010202 | 23 | 0 | 8.0 | 17.7 | 0.00 | 0.00 | 0.00 | 75 | 1011.8 |
| 20260508010002 | 23 | 351 | 4.8 | 17.7 | 0.00 | 0.00 | 0.00 | 75 | 1011.7 |
| 20260508005902 | 23 | 0 | 6.4 | 17.7 | 0.00 | 0.00 | 0.00 | 75 | 1011.7 |
| 20260508005801 | 23 | 13 | 8.0 | 17.7 | 0.00 | 0.00 | 0.00 | 75 | 1011.7 |
| 20260508005702 | 23 | 13 | 8.0 | 17.7 | 0.00 | 0.00 | 0.00 | 75 | 1011.7 |
| 20260508005602 | 23 | 18 | 6.4 | 11.3 | 0.00 | 0.00 | 0.00 | 75 | 1011.6 |
| 20260508005503 | 23 | 11 | 4.8 | 11.3 | 0.00 | 0.00 | 0.00 | 75 | 1011.6 |
| 20260508005402 | 23 | 17 | 6.4 | 11.3 | 0.00 | 0.00 | 0.00 | 74 | 1011.5 |
| 20260508005305 | 23 | 10 | 8.0 | 11.3 | 0.00 | 0.00 | 0.00 | 74 | 1011.5 |
| 20260508005202 | 23 | 11 | 8.0 | 11.3 | 0.00 | 0.00 | 0.00 | 74 | 1011.5 |
| 20260508005104 | 23 | 17 | 6.4 | 11.3 | 0.00 | 0.00 | 0.00 | 74 | 1011.6 |
| 20260508005004 | 23 | 0 | 6.4 | 11.3 | 0.00 | 0.00 | 0.00 | 74 | 1011.5 |
| 20260508004903 | 23 | 0 | 8.0 | 11.3 | 0.00 | 0.00 | 0.00 | 74 | 1011.5 |
| 20260508004802 | 23 | 13 | 8.0 | 11.3 | 0.00 | 0.00 | 0.00 | 74 | 1011.6 |
| 20260508004701 | 23 | 3 | 8.0 | 11.3 | 0.00 | 0.00 | 0.00 | 74 | 1011.7 |
| 20260508004602 | 23 | 0 | 8.0 | 11.3 | 0.00 | 0.00 | 0.00 | 74 | 1011.6 |
| 20260508004502 | 23 | 13 | 6.4 | 11.3 | 0.00 | 0.00 | 0.00 | 75 | 1011.6 |
| 20260508004403 | 23 | 10 | 6.4 | 11.3 | 0.00 | 0.00 | 0.00 | 75 | 1011.6 |
| 20260508004303 | 23 | 30 | 4.8 | 11.3 | 0.00 | 0.00 | 0.00 | 75 | 1011.6 |
| 20260508004202 | 23 | 0 | 4.8 | 11.3 | 0.00 | 0.00 | 0.00 | 75 | 1011.6 |
| 20260508004103 | 23 | 354 | 4.8 | 11.3 | 0.00 | 0.00 | 0.00 | 75 | 1011.7 |
| 20260508004005 | 23 | 7 | 4.8 | 11.3 | 0.00 | 0.00 | 0.00 | 75 | 1011.7 |
| 20260508003903 | 23 | 24 | 4.8 | 11.3 | 0.00 | 0.00 | 0.00 | 75 | 1011.6 |
| 20260508003803 | 23 | 0 | 6.4 | 11.3 | 0.00 | 0.00 | 0.00 | 75 | 1011.6 |
| 20260508003703 | 23 | 0 | 6.4 | 11.3 | 0.00 | 0.00 | 0.00 | 75 | 1011.6 |
| 20260508003603 | 23 | 28 | 6.4 | 11.3 | 0.00 | 0.00 | 0.00 | 75 | 1011.6 |
| 20260508003503 | 23 | 10 | 6.4 | 11.3 | 0.00 | 0.00 | 0.00 | 75 | 1011.6 |
| 20260508003402 | 23 | 17 | 8.0 | 11.3 | 0.00 | 0.00 | 0.00 | 75 | 1011.6 |
| 20260508003304 | 23 | 17 | 9.7 | 11.3 | 0.00 | 0.00 | 0.00 | 75 | 1011.6 |
| 20260508003201 | 23 | 0 | 8.0 | 11.3 | 0.00 | 0.00 | 0.00 | 75 | 1011.7 |
| 20260508003103 | 23 | 353 | 6.4 | 11.3 | 0.00 | 0.00 | 0.00 | 75 | 1011.7 |
| 20260508003006 | 23 | 1 | 6.4 | 9.7 | 0.00 | 0.00 | 0.00 | 75 | 1011.7 |
| 20260508002904 | 23 | 343 | 4.8 | 14.5 | 0.00 | 0.00 | 0.00 | 75 | 1011.8 |
| 20260508002802 | 23 | 0 | 4.8 | 14.5 | 0.00 | 0.00 | 0.00 | 74 | 1011.8 |
| 20260508002703 | 23 | 4 | 4.8 | 14.5 | 0.00 | 0.00 | 0.00 | 74 | 1011.7 |
| 20260508002603 | 23 | 4 | 4.8 | 14.5 | 0.00 | 0.00 | 0.00 | 74 | 1011.7 |
| 20260508002504 | 23 | 4 | 4.8 | 14.5 | 0.00 | 0.00 | 0.00 | 74 | 1011.7 |
| 20260508002403 | 23 | 4 | 4.8 | 14.5 | 0.00 | 0.00 | 0.00 | 74 | 1011.6 |
| 20260508002306 | 23 | 17 | 6.4 | 14.5 | 0.00 | 0.00 | 0.00 | 74 | 1011.6 |
| 20260508002202 | 23 | 13 | 6.4 | 14.5 | 0.00 | 0.00 | 0.00 | 74 | 1011.7 |
| 20260508002102 | 23 | 10 | 4.8 | 14.5 | 0.00 | 0.00 | 0.00 | 74 | 1011.7 |
| 20260508002003 | 23 | 10 | 4.8 | 14.5 | 0.00 | 0.00 | 0.00 | 74 | 1011.7 |
| 20260508001901 | 23 | 345 | 6.4 | 9.7 | 0.00 | 0.00 | 0.00 | 74 | 1011.7 |
| 20260508001803 | 23 | 344 | 6.4 | 9.7 | 0.00 | 0.00 | 0.00 | 74 | 1011.7 |
| 20260508001704 | 23 | 0 | 6.4 | 11.3 | 0.00 | 0.00 | 0.00 | 74 | 1011.7 |
| 20260508001602 | 23 | 357 | 6.4 | 11.3 | 0.00 | 0.00 | 0.00 | 74 | 1011.6 |
| 20260508001504 | 23 | 330 | 6.4 | 14.5 | 0.00 | 0.00 | 0.00 | 74 | 1011.7 |
| 20260508001403 | 23 | 7 | 6.4 | 14.5 | 0.00 | 0.00 | 0.00 | 75 | 1011.7 |
| 20260508001303 | 23 | 354 | 6.4 | 14.5 | 0.00 | 0.00 | 0.00 | 75 | 1011.8 |
| 20260508001202 | 23 | 357 | 4.8 | 14.5 | 0.00 | 0.00 | 0.00 | 75 | 1011.8 |
| 20260508001102 | 23 | 329 | 4.8 | 14.5 | 0.00 | 0.00 | 0.00 | 75 | 1011.8 |
| 20260508001004 | 23 | 21 | 6.4 | 14.5 | 0.00 | 0.00 | 0.00 | 75 | 1011.8 |
| 20260508000902 | 23 | 13 | 8.0 | 14.5 | 0.00 | 0.00 | 0.00 | 74 | 1011.8 |
| 20260508000803 | 23 | 358 | 8.0 | 14.5 | 0.00 | 0.00 | 0.00 | 74 | 1011.8 |
| 20260508000702 | 23 | 10 | 9.7 | 14.5 | 0.00 | 0.00 | 0.00 | 74 | 1011.7 |
| 20260508000601 | 24 | 0 | 9.7 | 16.1 | 0.00 | 0.00 | 0.00 | 74 | 1011.8 |
| 20260508000503 | 24 | 24 | 4.8 | 16.1 | 0.00 | 0.00 | 0.00 | 74 | 1011.7 |
| 20260508000405 | 24 | 350 | 4.8 | 16.1 | 0.00 | 0.00 | 0.00 | 74 | 1011.7 |
| 20260508000305 | 24 | 1 | 6.4 | 17.7 | 0.00 | 0.00 | 0.00 | 74 | 1011.7 |
| 20260508000204 | 24 | 0 | 6.4 | 17.7 | 0.00 | 0.00 | 0.00 | 74 | 1011.8 |
| 20260508000003 | 24 | 0 | 6.4 | 17.7 | 0.00 | 0.00 | 0.00 | 74 | 1011.8 |
| 20260507235903 | 24 | 347 | 9.7 | 17.7 | 0.00 | 0.00 | 0.00 | 74 | 1011.9 |
| 20260507235802 | 24 | 344 | 9.7 | 17.7 | 0.00 | 0.00 | 0.00 | 74 | 1011.9 |
| 20260507235702 | 24 | 8 | 8.0 | 17.7 | 0.00 | 0.00 | 0.00 | 74 | 1011.9 |
| 20260507235604 | 24 | 334 | 8.0 | 17.7 | 0.00 | 0.00 | 0.00 | 74 | 1011.9 |
| 20260507235502 | 24 | 0 | 9.7 | 17.7 | 0.00 | 0.00 | 0.00 | 74 | 1011.9 |
| 20260507235402 | 24 | 0 | 11.3 | 17.7 | 0.00 | 0.00 | 0.00 | 74 | 1011.9 |
| 20260507235306 | 24 | 14 | 8.0 | 17.7 | 0.00 | 0.00 | 0.00 | 74 | 1011.9 |
| 20260507235203 | 24 | 340 | 4.8 | 16.1 | 0.00 | 0.00 | 0.00 | 74 | 1011.9 |
| 20260507235102 | 24 | 351 | 6.4 | 16.1 | 0.00 | 0.00 | 0.00 | 74 | 1011.9 |
| 20260507235001 | 24 | 358 | 6.4 | 16.1 | 0.00 | 0.00 | 0.00 | 74 | 1011.9 |
| 20260507234903 | 24 | 354 | 4.8 | 16.1 | 0.00 | 0.00 | 0.00 | 74 | 1011.9 |
| 20260507234802 | 24 | 10 | 8.0 | 16.1 | 0.00 | 0.00 | 0.00 | 74 | 1011.9 |
| 20260507234702 | 24 | 10 | 8.0 | 16.1 | 0.00 | 0.00 | 0.00 | 75 | 1011.9 |
| 20260507234602 | 24 | 358 | 6.4 | 14.5 | 0.00 | 0.00 | 0.00 | 75 | 1011.9 |
| 20260507234504 | 24 | 0 | 6.4 | 14.5 | 0.00 | 0.00 | 0.00 | 75 | 1011.8 |
| 20260507234401 | 24 | 358 | 8.0 | 14.5 | 0.00 | 0.00 | 0.00 | 74 | 1011.8 |
| 20260507234302 | 24 | 350 | 6.4 | 14.5 | 0.00 | 0.00 | 0.00 | 75 | 1011.8 |
| 20260507234203 | 24 | 11 | 3.2 | 16.1 | 0.00 | 0.00 | 0.00 | 75 | 1011.7 |
| 20260507234102 | 24 | 0 | 4.8 | 16.1 | 0.00 | 0.00 | 0.00 | 75 | 1011.7 |
| 20260507234002 | 24 | 0 | 4.8 | 16.1 | 0.00 | 0.00 | 0.00 | 75 | 1011.7 |
| 20260507233903 | 24 | 3 | 6.4 | 16.1 | 0.00 | 0.00 | 0.00 | 75 | 1011.7 |
| 20260507233802 | 24 | 4 | 6.4 | 16.1 | 0.00 | 0.00 | 0.00 | 74 | 1011.6 |
| 20260507233702 | 24 | 10 | 6.4 | 16.1 | 0.00 | 0.00 | 0.00 | 74 | 1011.7 |
| 20260507233603 | 24 | 6 | 8.0 | 16.1 | 0.00 | 0.00 | 0.00 | 74 | 1011.6 |
| 20260507233504 | 25 | 21 | 8.0 | 16.1 | 0.00 | 0.00 | 0.00 | 73 | 1011.6 |
| 20260507233402 | 25 | 24 | 9.7 | 16.1 | 0.00 | 0.00 | 0.00 | 73 | 1011.6 |
| 20260507233302 | 25 | 20 | 6.4 | 16.1 | 0.00 | 0.00 | 0.00 | 73 | 1011.5 |
| 20260507233203 | 25 | 7 | 3.2 | 14.5 | 0.00 | 0.00 | 0.00 | 73 | 1011.5 |
| 20260507233103 | 25 | 10 | 4.8 | 14.5 | 0.00 | 0.00 | 0.00 | 73 | 1011.5 |
| 20260507233002 | 25 | 10 | 6.4 | 16.1 | 0.00 | 0.00 | 0.00 | 73 | 1011.6 |
| 20260507232903 | 25 | 7 | 6.4 | 16.1 | 0.00 | 0.00 | 0.00 | 72 | 1011.5 |
| 20260507232804 | 25 | 13 | 6.4 | 16.1 | 0.00 | 0.00 | 0.00 | 72 | 1011.5 |
| 20260507232703 | 25 | 4 | 6.4 | 16.1 | 0.00 | 0.00 | 0.00 | 72 | 1011.5 |
| 20260507232602 | 25 | 6 | 9.7 | 16.1 | 0.00 | 0.00 | 0.00 | 72 | 1011.5 |
| 20260507232503 | 25 | 28 | 9.7 | 16.1 | 0.00 | 0.00 | 0.00 | 72 | 1011.6 |
| 20260507232402 | 25 | 32 | 9.7 | 16.1 | 0.00 | 0.00 | 0.00 | 72 | 1011.6 |
| 20260507232258 | 25 | 25 | 8.0 | 16.1 | 0.00 | 0.00 | 0.00 | 72 | 1011.6 |
| 20260507232159 | 25 | 28 | 8.0 | 16.1 | 0.00 | 0.00 | 0.00 | 72 | 1011.6 |
| 20260507232057 | 25 | 13 | 6.4 | 17.7 | 0.00 | 0.00 | 0.00 | 72 | 1011.6 |
| 20260507231955 | 25 | 23 | 6.4 | 17.7 | 0.00 | 0.00 | 0.00 | 72 | 1011.5 |
| 20260507231855 | 25 | 23 | 9.7 | 17.7 | 0.00 | 0.00 | 0.00 | 72 | 1011.5 |
| 20260507231752 | 25 | 25 | 9.7 | 20.9 | 0.00 | 0.00 | 0.00 | 72 | 1011.4 |
| 20260507231651 | 25 | 37 | 8.0 | 20.9 | 0.00 | 0.00 | 0.00 | 71 | 1011.3 |
| 20260507231549 | 25 | 32 | 9.7 | 20.9 | 0.00 | 0.00 | 0.00 | 71 | 1011.4 |
| 20260507231447 | 25 | 27 | 9.7 | 20.9 | 0.00 | 0.00 | 0.00 | 72 | 1011.4 |
| 20260507231348 | 25 | 14 | 11.3 | 20.9 | 0.00 | 0.00 | 0.00 | 72 | 1011.3 |
| 20260507231244 | 25 | 21 | 9.7 | 20.9 | 0.00 | 0.00 | 0.00 | 72 | 1011.3 |
| 20260507231143 | 25 | 39 | 9.7 | 20.9 | 0.00 | 0.00 | 0.00 | 71 | 1011.3 |
| 20260507231043 | 25 | 30 | 11.3 | 20.9 | 0.00 | 0.00 | 0.00 | 72 | 1011.3 |
| 20260507230939 | 25 | 25 | 12.9 | 20.9 | 0.00 | 0.00 | 0.00 | 72 | 1011.3 |
| 20260507230839 | 25 | 17 | 11.3 | 20.9 | 0.00 | 0.00 | 0.00 | 72 | 1011.3 |
| 20260507230737 | 25 | 20 | 9.7 | 16.1 | 0.00 | 0.00 | 0.00 | 72 | 1011.4 |
| 20260507230632 | 25 | 31 | 9.7 | 14.5 | 0.00 | 0.00 | 0.00 | 72 | 1011.3 |
| 20260507230531 | 25 | 23 | 9.7 | 14.5 | 0.00 | 0.00 | 0.00 | 73 | 1011.4 |
| 20260507230432 | 25 | 10 | 9.7 | 14.5 | 0.00 | 0.00 | 0.00 | 72 | 1011.4 |
| 20260507230331 | 25 | 28 | 9.7 | 14.5 | 0.00 | 0.00 | 0.00 | 72 | 1011.4 |
| 20260507230233 | 25 | 10 | 11.3 | 14.5 | 0.00 | 0.00 | 0.00 | 72 | 1011.4 |
| 20260507230131 | 25 | 10 | 11.3 | 14.5 | 0.00 | 0.00 | 0.00 | 72 | 1011.4 |
| 20260507230031 | 25 | 17 | 11.3 | 14.5 | 0.00 | 0.00 | 0.00 | 72 | 1011.3 |
| 20260507225931 | 25 | 8 | 11.3 | 14.5 | 0.00 | 0.00 | 0.00 | 72 | 1011.2 |
| 20260507225832 | 25 | 10 | 8.0 | 14.5 | 0.00 | 0.00 | 0.00 | 72 | 1011.3 |
| 20260507225733 | 25 | 16 | 6.4 | 14.5 | 0.00 | 0.00 | 0.00 | 73 | 1011.2 |
| 20260507225633 | 25 | 16 | 6.4 | 14.5 | 0.00 | 0.00 | 0.00 | 73 | 1011.2 |
| 20260507225530 | 25 | 21 | 6.4 | 14.5 | 0.00 | 0.00 | 0.00 | 73 | 1011.2 |
| 20260507225430 | 25 | 0 | 4.8 | 16.1 | 0.00 | 0.00 | 0.00 | 73 | 1011.3 |
| 20260507225331 | 25 | 0 | 4.8 | 16.1 | 0.00 | 0.00 | 0.00 | 73 | 1011.1 |
| 20260507225232 | 25 | 0 | 4.8 | 16.1 | 0.00 | 0.00 | 0.00 | 73 | 1011.1 |
| 20260507225131 | 25 | 0 | 8.0 | 16.1 | 0.00 | 0.00 | 0.00 | 73 | 1011.1 |
| 20260507225032 | 25 | 7 | 8.0 | 16.1 | 0.00 | 0.00 | 0.00 | 72 | 1011.0 |
| 20260507224931 | 25 | 13 | 8.0 | 16.1 | 0.00 | 0.00 | 0.00 | 73 | 1011.1 |
| 20260507224830 | 25 | 0 | 9.7 | 16.1 | 0.00 | 0.00 | 0.00 | 72 | 1011.0 |
| 20260507224732 | 25 | 10 | 9.7 | 16.1 | 0.00 | 0.00 | 0.00 | 73 | 1011.1 |
| 20260507224631 | 25 | 14 | 11.3 | 16.1 | 0.00 | 0.00 | 0.00 | 73 | 1011.1 |
| 20260507224531 | 25 | 3 | 9.7 | 16.1 | 0.00 | 0.00 | 0.00 | 73 | 1011.0 |
| 20260507224429 | 25 | 17 | 6.4 | 14.5 | 0.00 | 0.00 | 0.00 | 73 | 1011.0 |
| 20260507224330 | 25 | 10 | 6.4 | 9.7 | 0.00 | 0.00 | 0.00 | 73 | 1011.0 |
| 20260507224226 | 25 | 10 | 6.4 | 9.7 | 0.00 | 0.00 | 0.00 | 73 | 1011.1 |
| 20260507224126 | 25 | 7 | 4.8 | 9.7 | 0.00 | 0.00 | 0.00 | 73 | 1011.1 |
| 20260507224023 | 25 | 10 | 4.8 | 9.7 | 0.00 | 0.00 | 0.00 | 73 | 1011.0 |
| 20260507223922 | 25 | 13 | 6.4 | 9.7 | 0.00 | 0.00 | 0.00 | 73 | 1011.1 |
| 20260507223821 | 25 | 17 | 8.0 | 9.7 | 0.00 | 0.00 | 0.00 | 73 | 1011.1 |
| 20260507223721 | 25 | 0 | 6.4 | 11.3 | 0.00 | 0.00 | 0.00 | 73 | 1011.2 |
| 20260507223621 | 25 | 6 | 4.8 | 11.3 | 0.00 | 0.00 | 0.00 | 73 | 1011.2 |
| 20260507223521 | 25 | 0 | 4.8 | 11.3 | 0.00 | 0.00 | 0.00 | 73 | 1011.2 |
| 20260507223420 | 25 | 7 | 6.4 | 11.3 | 0.00 | 0.00 | 0.00 | 72 | 1011.2 |
| 20260507223320 | 25 | 20 | 6.4 | 11.3 | 0.00 | 0.00 | 0.00 | 72 | 1011.1 |
| 20260507223220 | 25 | 21 | 6.4 | 11.3 | 0.00 | 0.00 | 0.00 | 72 | 1011.2 |
| 20260507223120 | 25 | 21 | 6.4 | 11.3 | 0.00 | 0.00 | 0.00 | 72 | 1011.1 |
| 20260507223020 | 25 | 24 | 4.8 | 11.3 | 0.00 | 0.00 | 0.00 | 72 | 1011.2 |
| 20260507222921 | 25 | 34 | 6.4 | 11.3 | 0.00 | 0.00 | 0.00 | 72 | 1011.1 |
| 20260507222821 | 25 | 37 | 8.0 | 14.5 | 0.00 | 0.00 | 0.00 | 72 | 1011.2 |
| 20260507222720 | 25 | 35 | 8.0 | 14.5 | 0.00 | 0.00 | 0.00 | 72 | 1011.1 |
| 20260507222622 | 25 | 25 | 8.0 | 16.1 | 0.00 | 0.00 | 0.00 | 72 | 1011.1 |
| 20260507222520 | 25 | 34 | 9.7 | 16.1 | 0.00 | 0.00 | 0.00 | 72 | 1011.1 |
| 20260507222420 | 25 | 28 | 6.4 | 16.1 | 0.00 | 0.00 | 0.00 | 73 | 1011.2 |
| 20260507222320 | 25 | 8 | 6.4 | 16.1 | 0.00 | 0.00 | 0.00 | 72 | 1011.2 |
| 20260507222222 | 25 | 21 | 6.4 | 16.1 | 0.00 | 0.00 | 0.00 | 72 | 1011.2 |
| 20260507222120 | 25 | 17 | 6.4 | 16.1 | 0.00 | 0.00 | 0.00 | 73 | 1011.2 |
| 20260507222020 | 25 | 18 | 9.7 | 16.1 | 0.00 | 0.00 | 0.00 | 73 | 1011.3 |
| 20260507221922 | 25 | 25 | 9.7 | 16.1 | 0.00 | 0.00 | 0.00 | 72 | 1011.3 |
| 20260507221820 | 25 | 21 | 9.7 | 16.1 | 0.00 | 0.00 | 0.00 | 72 | 1011.3 |
| 20260507221720 | 25 | 27 | 8.0 | 16.1 | 0.00 | 0.00 | 0.00 | 73 | 1011.3 |
| 20260507221620 | 25 | 10 | 4.8 | 11.3 | 0.00 | 0.00 | 0.00 | 73 | 1011.3 |
| 20260507221522 | 25 | 18 | 6.4 | 11.3 | 0.00 | 0.00 | 0.00 | 73 | 1011.2 |
| 20260507221420 | 25 | 11 | 6.4 | 14.5 | 0.00 | 0.00 | 0.00 | 72 | 1011.3 |
| 20260507221320 | 25 | 18 | 6.4 | 14.5 | 0.00 | 0.00 | 0.00 | 72 | 1011.2 |
| 20260507221221 | 25 | 13 | 4.8 | 14.5 | 0.00 | 0.00 | 0.00 | 71 | 1011.2 |
| 20260507221121 | 25 | 1 | 3.2 | 14.5 | 0.00 | 0.00 | 0.00 | 71 | 1011.4 |
| 20260507221019 | 25 | 0 | 3.2 | 14.5 | 0.00 | 0.00 | 0.00 | 71 | 1011.3 |
| 20260507220920 | 25 | 0 | 4.8 | 14.5 | 0.00 | 0.00 | 0.00 | 71 | 1011.3 |
| 20260507220821 | 25 | 0 | 4.8 | 14.5 | 0.00 | 0.00 | 0.00 | 71 | 1011.4 |
| 20260507220720 | 25 | 0 | 6.4 | 14.5 | 0.00 | 0.00 | 0.00 | 71 | 1011.4 |
| 20260507220620 | 25 | 0 | 9.7 | 14.5 | 0.00 | 0.00 | 0.00 | 71 | 1011.4 |
| 20260507220521 | 25 | 23 | 8.0 | 16.1 | 0.00 | 0.00 | 0.00 | 71 | 1011.5 |
| 20260507220420 | 25 | 28 | 6.4 | 16.1 | 0.00 | 0.00 | 0.00 | 71 | 1011.5 |
| 20260507220319 | 25 | 17 | 4.8 | 16.1 | 0.00 | 0.00 | 0.00 | 71 | 1011.5 |
| 20260507220221 | 25 | 17 | 6.4 | 16.1 | 0.00 | 0.00 | 0.00 | 71 | 1011.5 |
| 20260507220121 | 25 | 17 | 6.4 | 16.1 | 0.00 | 0.00 | 0.00 | 71 | 1011.4 |
| 20260507220020 | 25 | 13 | 6.4 | 16.1 | 0.00 | 0.00 | 0.00 | 71 | 1011.5 |
| 20260507215920 | 25 | 32 | 8.0 | 16.1 | 0.00 | 0.00 | 0.00 | 71 | 1011.5 |
| 20260507215820 | 25 | 23 | 6.4 | 16.1 | 0.00 | 0.00 | 0.00 | 71 | 1011.5 |
| 20260507215719 | 25 | 18 | 8.0 | 16.1 | 0.00 | 0.00 | 0.00 | 71 | 1011.4 |
| 20260507215619 | 25 | 17 | 8.0 | 16.1 | 0.00 | 0.00 | 0.00 | 71 | 1011.4 |
| 20260507215520 | 25 | 14 | 6.4 | 14.5 | 0.00 | 0.00 | 0.00 | 71 | 1011.4 |
| 20260507215421 | 25 | 14 | 4.8 | 14.5 | 0.00 | 0.00 | 0.00 | 70 | 1011.4 |
| 20260507215319 | 25 | 216 | 4.8 | 14.5 | 0.00 | 0.00 | 0.00 | 70 | 1011.5 |
| 20260507215219 | 26 | 224 | 4.8 | 14.5 | 0.00 | 0.00 | 0.00 | 70 | 1011.4 |
| 20260507215120 | 25 | 0 | 4.8 | 14.5 | 0.00 | 0.00 | 0.00 | 70 | 1011.6 |
| 20260507215019 | 25 | 0 | 4.8 | 14.5 | 0.00 | 0.00 | 0.00 | 71 | 1011.6 |
| 20260507214919 | 25 | 0 | 6.4 | 14.5 | 0.00 | 0.00 | 0.00 | 71 | 1011.6 |
| 20260507214819 | 25 | 8 | 8.0 | 14.5 | 0.00 | 0.00 | 0.00 | 70 | 1011.7 |
| 20260507214720 | 25 | 17 | 8.0 | 14.5 | 0.00 | 0.00 | 0.00 | 71 | 1011.6 |
| 20260507214620 | 25 | 21 | 4.8 | 14.5 | 0.00 | 0.00 | 0.00 | 72 | 1011.7 |
| 20260507214520 | 25 | 8 | 6.4 | 14.5 | 0.00 | 0.00 | 0.00 | 72 | 1011.7 |
| 20260507214421 | 25 | 13 | 6.4 | 14.5 | 0.00 | 0.00 | 0.00 | 72 | 1011.7 |
| 20260507214321 | 25 | 41 | 8.0 | 14.5 | 0.00 | 0.00 | 0.00 | 72 | 1011.7 |
| 20260507214220 | 25 | 27 | 8.0 | 14.5 | 0.00 | 0.00 | 0.00 | 71 | 1011.7 |
| 20260507214120 | 25 | 35 | 8.0 | 14.5 | 0.00 | 0.00 | 0.00 | 71 | 1011.6 |
| 20260507214019 | 25 | 38 | 9.7 | 14.5 | 0.00 | 0.00 | 0.00 | 71 | 1011.6 |
| 20260507213919 | 25 | 23 | 9.7 | 14.5 | 0.00 | 0.00 | 0.00 | 72 | 1011.8 |
| 20260507213820 | 25 | 21 | 8.0 | 16.1 | 0.00 | 0.00 | 0.00 | 71 | 1011.7 |
| 20260507213720 | 25 | 14 | 6.4 | 16.1 | 0.00 | 0.00 | 0.00 | 71 | 1011.8 |
| 20260507213620 | 25 | 11 | 8.0 | 16.1 | 0.00 | 0.00 | 0.00 | 71 | 1011.7 |
| 20260507213521 | 25 | 11 | 8.0 | 17.7 | 0.00 | 0.00 | 0.00 | 71 | 1011.7 |
| 20260507213420 | 25 | 0 | 8.0 | 17.7 | 0.00 | 0.00 | 0.00 | 71 | 1011.7 |
| 20260507213319 | 25 | 4 | 4.8 | 17.7 | 0.00 | 0.00 | 0.00 | 71 | 1011.7 |
| 20260507213219 | 25 | 8 | 4.8 | 17.7 | 0.00 | 0.00 | 0.00 | 71 | 1011.6 |
| 20260507213119 | 25 | 27 | 6.4 | 17.7 | 0.00 | 0.00 | 0.00 | 70 | 1011.7 |
| 20260507213020 | 25 | 18 | 8.0 | 17.7 | 0.00 | 0.00 | 0.00 | 70 | 1011.6 |
| 20260507212919 | 25 | 27 | 9.7 | 17.7 | 0.00 | 0.00 | 0.00 | 71 | 1011.7 |
| 20260507212820 | 25 | 52 | 8.0 | 17.7 | 0.00 | 0.00 | 0.00 | 71 | 1011.7 |
| 20260507212720 | 25 | 31 | 8.0 | 17.7 | 0.00 | 0.00 | 0.00 | 70 | 1011.7 |
| 20260507212621 | 25 | 347 | 8.0 | 17.7 | 0.00 | 0.00 | 0.00 | 69 | 1011.6 |
| 20260507212519 | 26 | 4 | 6.4 | 14.5 | 0.00 | 0.00 | 0.00 | 68 | 1011.6 |
| 20260507212419 | 26 | 0 | 6.4 | 14.5 | 0.00 | 0.00 | 0.00 | 68 | 1011.6 |
| 20260507212320 | 26 | 7 | 6.4 | 14.5 | 0.00 | 0.00 | 0.00 | 68 | 1011.6 |
| 20260507212218 | 26 | 357 | 6.4 | 16.1 | 0.00 | 0.00 | 0.00 | 67 | 1011.6 |
| 20260507212118 | 26 | 351 | 4.8 | 16.1 | 0.00 | 0.00 | 0.00 | 68 | 1011.7 |
| 20260507212019 | 26 | 4 | 4.8 | 16.1 | 0.00 | 0.00 | 0.00 | 68 | 1011.7 |
| 20260507211919 | 26 | 4 | 3.2 | 16.1 | 0.00 | 0.00 | 0.00 | 68 | 1011.7 |
| 20260507211820 | 26 | 4 | 4.8 | 16.1 | 0.00 | 0.00 | 0.00 | 70 | 1011.6 |
| 20260507211719 | 26 | 32 | 4.8 | 19.3 | 0.00 | 0.00 | 0.00 | 70 | 1011.7 |
| 20260507211621 | 26 | 17 | 6.4 | 19.3 | 0.00 | 0.00 | 0.00 | 71 | 1011.7 |
| 20260507211519 | 25 | 20 | 8.0 | 19.3 | 0.00 | 0.00 | 0.00 | 71 | 1011.7 |
| 20260507211418 | 25 | 51 | 9.7 | 19.3 | 0.00 | 0.00 | 0.00 | 70 | 1011.8 |
| 20260507211320 | 26 | 32 | 11.3 | 19.3 | 0.00 | 0.00 | 0.00 | 69 | 1011.8 |
| 20260507211219 | 26 | 51 | 9.7 | 19.3 | 0.00 | 0.00 | 0.00 | 69 | 1011.7 |
| 20260507211118 | 26 | 31 | 11.3 | 20.9 | 0.00 | 0.00 | 0.00 | 69 | 1011.8 |
| 20260507211018 | 26 | 30 | 11.3 | 20.9 | 0.00 | 0.00 | 0.00 | 69 | 1011.8 |
| 20260507210919 | 26 | 21 | 11.3 | 20.9 | 0.00 | 0.00 | 0.00 | 69 | 1011.8 |
| 20260507210818 | 26 | 25 | 11.3 | 20.9 | 0.00 | 0.00 | 0.00 | 69 | 1011.8 |
| 20260507210718 | 26 | 37 | 6.4 | 20.9 | 0.00 | 0.00 | 0.00 | 70 | 1011.7 |
| 20260507210620 | 25 | 27 | 6.4 | 20.9 | 0.00 | 0.00 | 0.00 | 69 | 1011.8 |
| 20260507210519 | 25 | 28 | 8.0 | 20.9 | 0.00 | 0.00 | 0.00 | 69 | 1011.8 |
| 20260507210418 | 25 | 25 | 9.7 | 20.9 | 0.00 | 0.00 | 0.00 | 70 | 1011.8 |
| 20260507210319 | 25 | 35 | 12.9 | 20.9 | 0.00 | 0.00 | 0.00 | 70 | 1011.9 |
| 20260507210220 | 26 | 6 | 11.3 | 20.9 | 0.00 | 0.00 | 0.00 | 70 | 1011.9 |
| 20260507210118 | 26 | 11 | 8.0 | 16.1 | 0.00 | 0.00 | 0.00 | 69 | 1011.9 |
| 20260507210019 | 26 | 45 | 9.7 | 16.1 | 0.00 | 0.00 | 0.00 | 69 | 1011.9 |
| 20260507205919 | 26 | 3 | 9.7 | 16.1 | 0.00 | 0.00 | 0.00 | 69 | 1011.9 |
| 20260507205819 | 26 | 20 | 8.0 | 17.7 | 0.00 | 0.00 | 0.00 | 70 | 1011.9 |
| 20260507205718 | 25 | 4 | 8.0 | 19.3 | 0.00 | 0.00 | 0.00 | 71 | 1012.0 |
| 20260507205619 | 25 | 20 | 9.7 | 19.3 | 0.00 | 0.00 | 0.00 | 69 | 1011.9 |
| 20260507205518 | 25 | 31 | 9.7 | 19.3 | 0.00 | 0.00 | 0.00 | 70 | 1011.8 |
| 20260507205419 | 26 | 23 | 8.0 | 19.3 | 0.00 | 0.00 | 0.00 | 70 | 1011.8 |
| 20260507205318 | 25 | 45 | 8.0 | 19.3 | 0.00 | 0.00 | 0.00 | 70 | 1011.8 |
| 20260507205219 | 26 | 45 | 8.0 | 19.3 | 0.00 | 0.00 | 0.00 | 69 | 1011.9 |
| 20260507205118 | 26 | 11 | 8.0 | 19.3 | 0.00 | 0.00 | 0.00 | 69 | 1011.9 |
| 20260507205018 | 26 | 0 | 9.7 | 19.3 | 0.00 | 0.00 | 0.00 | 70 | 1011.9 |
| 20260507204919 | 26 | 20 | 12.9 | 19.3 | 0.00 | 0.00 | 0.00 | 69 | 1011.8 |
| 20260507204818 | 26 | 21 | 11.3 | 19.3 | 0.00 | 0.00 | 0.00 | 70 | 1011.9 |
| 20260507204719 | 26 | 16 | 9.7 | 22.5 | 0.00 | 0.00 | 0.00 | 70 | 1012.0 |
| 20260507204618 | 26 | 41 | 12.9 | 22.5 | 0.00 | 0.00 | 0.00 | 69 | 1011.9 |
| 20260507204521 | 26 | 39 | 11.3 | 22.5 | 0.00 | 0.00 | 0.00 | 69 | 1012.0 |
| 20260507204419 | 26 | 44 | 8.0 | 22.5 | 0.00 | 0.00 | 0.00 | 70 | 1012.1 |
| 20260507204319 | 25 | 0 | 9.7 | 22.5 | 0.00 | 0.00 | 0.00 | 70 | 1012.0 |
| 20260507204219 | 25 | 25 | 11.3 | 22.5 | 0.00 | 0.00 | 0.00 | 70 | 1012.1 |
| 20260507204119 | 26 | 320 | 11.3 | 22.5 | 0.00 | 0.00 | 0.00 | 69 | 1012.0 |
| 20260507204018 | 26 | 3 | 11.3 | 22.5 | 0.00 | 0.00 | 0.00 | 69 | 1012.0 |
| 20260507203916 | 26 | 4 | 12.9 | 22.5 | 0.00 | 0.00 | 0.00 | 69 | 1012.0 |
| 20260507203815 | 26 | 1 | 12.9 | 22.5 | 0.00 | 0.00 | 0.00 | 69 | 1012.0 |
| 20260507203714 | 26 | 350 | 8.0 | 17.7 | 0.00 | 0.00 | 0.00 | 71 | 1012.0 |
| 20260507203611 | 26 | 24 | 4.8 | 17.7 | 0.00 | 0.00 | 0.00 | 71 | 1011.9 |
| 20260507203510 | 25 | 358 | 4.8 | 17.7 | 0.00 | 0.00 | 0.00 | 70 | 1011.9 |
| 20260507203409 | 25 | 24 | 6.4 | 17.7 | 0.00 | 0.00 | 0.00 | 70 | 1011.9 |
| 20260507203307 | 25 | 344 | 6.4 | 17.7 | 0.00 | 0.00 | 0.00 | 71 | 1011.9 |
| 20260507203207 | 25 | 357 | 6.4 | 17.7 | 0.00 | 0.00 | 0.00 | 71 | 1011.9 |
| 20260507203104 | 25 | 20 | 8.0 | 17.7 | 0.00 | 0.00 | 0.00 | 71 | 1012.0 |
| 20260507203003 | 25 | 341 | 11.3 | 17.7 | 0.00 | 0.00 | 0.00 | 71 | 1012.0 |
| 20260507202903 | 25 | 30 | 12.9 | 17.7 | 0.00 | 0.00 | 0.00 | 71 | 1012.1 |
| 20260507202802 | 25 | 357 | 9.7 | 17.7 | 0.00 | 0.00 | 0.00 | 71 | 1012.1 |
| 20260507202702 | 25 | 7 | 9.7 | 17.7 | 0.00 | 0.00 | 0.00 | 71 | 1012.1 |
| 20260507202602 | 25 | 11 | 11.3 | 17.7 | 0.00 | 0.00 | 0.00 | 70 | 1012.2 |
| 20260507202502 | 25 | 0 | 9.7 | 16.1 | 0.00 | 0.00 | 0.00 | 71 | 1012.3 |
| 20260507202403 | 25 | 3 | 8.0 | 16.1 | 0.00 | 0.00 | 0.00 | 71 | 1012.3 |
| 20260507202306 | 25 | 357 | 8.0 | 16.1 | 0.00 | 0.00 | 0.00 | 72 | 1012.3 |
| 20260507202202 | 25 | 34 | 8.0 | 16.1 | 0.00 | 0.00 | 0.00 | 72 | 1012.3 |
| 20260507202103 | 25 | 13 | 9.7 | 17.7 | 0.00 | 0.00 | 0.00 | 71 | 1012.3 |
| 20260507202004 | 25 | 17 | 9.7 | 17.7 | 0.00 | 0.00 | 0.00 | 71 | 1012.2 |
| 20260507201901 | 25 | 24 | 8.0 | 17.7 | 0.00 | 0.00 | 0.00 | 71 | 1012.2 |
| 20260507201801 | 25 | 17 | 6.4 | 17.7 | 0.00 | 0.00 | 0.00 | 70 | 1012.2 |
| 20260507201703 | 25 | 13 | 4.8 | 17.7 | 0.00 | 0.00 | 0.00 | 71 | 1012.1 |
| 20260507201601 | 25 | 54 | 4.8 | 17.7 | 0.00 | 0.00 | 0.00 | 69 | 1012.2 |
| 20260507201501 | 25 | 65 | 4.8 | 17.7 | 0.00 | 0.00 | 0.00 | 70 | 1012.2 |
| 20260507201358 | 25 | 11 | 8.0 | 17.7 | 0.00 | 0.00 | 0.00 | 69 | 1012.2 |
| 20260507201257 | 26 | 21 | 12.9 | 17.7 | 0.00 | 0.00 | 0.00 | 68 | 1012.2 |
| 20260507201155 | 26 | 44 | 11.3 | 17.7 | 0.00 | 0.00 | 0.00 | 68 | 1012.2 |
| 20260507201055 | 26 | 25 | 8.0 | 19.3 | 0.00 | 0.00 | 0.00 | 69 | 1012.3 |
| 20260507200952 | 26 | 61 | 8.0 | 19.3 | 0.00 | 0.00 | 0.00 | 69 | 1012.2 |
| 20260507200850 | 26 | 32 | 6.4 | 19.3 | 0.00 | 0.00 | 0.00 | 69 | 1012.3 |
| 20260507200749 | 26 | 47 | 6.4 | 19.3 | 0.00 | 0.00 | 0.00 | 69 | 1012.3 |
| 20260507200647 | 26 | 41 | 9.7 | 25.7 | 0.00 | 0.00 | 0.00 | 69 | 1012.3 |
| 20260507200545 | 26 | 47 | 6.4 | 25.7 | 0.00 | 0.00 | 0.00 | 71 | 1012.3 |
| 20260507200441 | 25 | 23 | 4.8 | 25.7 | 0.00 | 0.00 | 0.00 | 70 | 1012.3 |
| 20260507200340 | 25 | 71 | 8.0 | 25.7 | 0.00 | 0.00 | 0.00 | 70 | 1012.3 |
| 20260507200238 | 25 | 39 | 9.7 | 25.7 | 0.00 | 0.00 | 0.00 | 70 | 1012.3 |
| 20260507200136 | 25 | 32 | 9.7 | 25.7 | 0.00 | 0.00 | 0.00 | 71 | 1012.3 |
| 20260507200036 | 25 | 3 | 11.3 | 25.7 | 0.00 | 0.00 | 0.00 | 70 | 1012.2 |
| 20260507195933 | 25 | 21 | 11.3 | 25.7 | 0.00 | 0.00 | 0.00 | 70 | 1012.2 |
| 20260507195830 | 25 | 20 | 14.5 | 25.7 | 0.00 | 0.00 | 0.00 | 70 | 1012.2 |
| 20260507195731 | 25 | 25 | 12.9 | 25.7 | 0.00 | 0.00 | 0.00 | 70 | 1012.3 |
| 20260507195632 | 25 | 25 | 8.0 | 22.5 | 0.00 | 0.00 | 0.00 | 70 | 1012.3 |
| 20260507195531 | 25 | 56 | 8.0 | 22.5 | 0.00 | 0.00 | 0.00 | 70 | 1012.3 |
| 20260507195430 | 25 | 42 | 9.7 | 22.5 | 0.00 | 0.00 | 0.00 | 71 | 1012.3 |
| 20260507195332 | 25 | 76 | 11.3 | 22.5 | 0.00 | 0.00 | 0.00 | 71 | 1012.4 |
| 20260507195232 | 25 | 13 | 14.5 | 22.5 | 0.00 | 0.00 | 0.00 | 71 | 1012.3 |
| 20260507195131 | 25 | 61 | 14.5 | 22.5 | 0.00 | 0.00 | 0.00 | 70 | 1012.4 |
| 20260507195031 | 25 | 34 | 11.3 | 22.5 | 0.00 | 0.00 | 0.00 | 69 | 1012.4 |
| 20260507194932 | 25 | 85 | 11.3 | 22.5 | 0.00 | 0.00 | 0.00 | 70 | 1012.4 |
| 20260507194832 | 25 | 10 | 12.9 | 22.5 | 0.00 | 0.00 | 0.00 | 69 | 1012.5 |
| 20260507194730 | 25 | 6 | 12.9 | 22.5 | 0.00 | 0.00 | 0.00 | 69 | 1012.5 |
| 20260507194631 | 25 | 0 | 9.7 | 17.7 | 0.00 | 0.00 | 0.00 | 70 | 1012.4 |
| 20260507194531 | 25 | 7 | 6.4 | 17.7 | 0.00 | 0.00 | 0.00 | 70 | 1012.5 |
| 20260507194431 | 25 | 17 | 6.4 | 22.5 | 0.00 | 0.00 | 0.00 | 71 | 1012.5 |
| 20260507194329 | 25 | 0 | 8.0 | 22.5 | 0.00 | 0.00 | 0.00 | 71 | 1012.6 |
| 20260507194226 | 25 | 18 | 9.7 | 22.5 | 0.00 | 0.00 | 0.00 | 71 | 1012.6 |
| 20260507194125 | 25 | 39 | 9.7 | 22.5 | 0.00 | 0.00 | 0.00 | 70 | 1012.6 |
| 20260507194024 | 25 | 0 | 8.0 | 22.5 | 0.00 | 0.00 | 0.00 | 70 | 1012.6 |
| 20260507193923 | 25 | 14 | 9.7 | 22.5 | 0.00 | 0.00 | 0.00 | 71 | 1012.6 |
| 20260507193817 | 25 | 21 | 9.7 | 22.5 | 0.00 | 0.00 | 0.00 | 72 | 1012.6 |
| 20260507193717 | 25 | 7 | 11.3 | 22.5 | 0.00 | 0.00 | 0.00 | 73 | 1012.7 |
| 20260507193616 | 24 | 14 | 14.5 | 22.5 | 0.00 | 0.00 | 0.00 | 73 | 1012.7 |
| 20260507193516 | 24 | 30 | 11.3 | 22.5 | 0.00 | 0.00 | 0.00 | 73 | 1012.6 |
| 20260507193417 | 24 | 0 | 9.7 | 22.5 | 0.00 | 0.00 | 0.00 | 72 | 1012.7 |
| 20260507193316 | 24 | 0 | 11.3 | 22.5 | 0.00 | 0.00 | 0.00 | 71 | 1012.8 |
| 20260507193217 | 24 | 0 | 6.4 | 22.5 | 0.00 | 0.00 | 0.00 | 71 | 1012.8 |
| 20260507193117 | 25 | 1 | 6.4 | 22.5 | 0.00 | 0.00 | 0.00 | 72 | 1012.8 |
| 20260507193017 | 25 | 0 | 9.7 | 22.5 | 0.00 | 0.00 | 0.00 | 71 | 1012.8 |
| 20260507192916 | 25 | 6 | 9.7 | 22.5 | 0.00 | 0.00 | 0.00 | 71 | 1012.9 |
| 20260507192817 | 25 | 0 | 11.3 | 22.5 | 0.00 | 0.00 | 0.00 | 71 | 1012.9 |
| 20260507192718 | 25 | 0 | 14.5 | 25.7 | 0.00 | 0.00 | 0.00 | 71 | 1012.9 |
| 20260507192616 | 25 | 14 | 14.5 | 25.7 | 0.00 | 0.00 | 0.00 | 71 | 1013.0 |
| 20260507192517 | 25 | 0 | 14.5 | 25.7 | 0.00 | 0.00 | 0.00 | 72 | 1013.1 |
| 20260507192417 | 24 | 0 | 12.9 | 25.7 | 0.00 | 0.00 | 0.00 | 74 | 1013.0 |
| 20260507192316 | 24 | 31 | 12.9 | 25.7 | 0.00 | 0.00 | 0.00 | 73 | 1013.0 |
| 20260507192217 | 24 | 18 | 12.9 | 25.7 | 0.00 | 0.00 | 0.00 | 72 | 1013.0 |
| 20260507192117 | 24 | 0 | 11.3 | 25.7 | 0.00 | 0.00 | 0.00 | 73 | 1013.1 |
| 20260507192016 | 24 | 13 | 11.3 | 25.7 | 0.00 | 0.00 | 0.00 | 73 | 1013.1 |
| 20260507191916 | 24 | 13 | 14.5 | 25.7 | 0.00 | 0.00 | 0.00 | 73 | 1013.1 |
| 20260507191818 | 24 | 8 | 14.5 | 25.7 | 0.00 | 0.00 | 0.00 | 72 | 1013.0 |
| 20260507191719 | 24 | 7 | 12.9 | 22.5 | 0.00 | 0.00 | 0.00 | 72 | 1013.1 |
| 20260507191616 | 24 | 23 | 14.5 | 22.5 | 0.00 | 0.00 | 0.00 | 72 | 1013.1 |
| 20260507191516 | 24 | 23 | 16.1 | 22.5 | 0.00 | 0.00 | 0.00 | 72 | 1013.1 |
| 20260507191416 | 24 | 16 | 14.5 | 22.5 | 0.00 | 0.00 | 0.00 | 72 | 1013.1 |
| 20260507191316 | 24 | 32 | 9.7 | 22.5 | 0.00 | 0.00 | 0.00 | 72 | 1013.1 |
| 20260507191216 | 24 | 16 | 6.4 | 19.3 | 0.00 | 0.00 | 0.00 | 73 | 1013.2 |
| 20260507191117 | 24 | 18 | 6.4 | 22.5 | 0.00 | 0.00 | 0.00 | 73 | 1013.2 |
| 20260507191015 | 24 | 0 | 8.0 | 22.5 | 0.00 | 0.00 | 0.00 | 73 | 1013.1 |
| 20260507190915 | 23 | 0 | 8.0 | 22.5 | 0.00 | 0.00 | 0.00 | 73 | 1013.3 |
| 20260507190816 | 23 | 27 | 12.9 | 22.5 | 0.00 | 0.00 | 0.00 | 73 | 1013.3 |
| 20260507190717 | 23 | 28 | 14.5 | 22.5 | 0.00 | 0.00 | 0.00 | 73 | 1013.3 |
| 20260507190617 | 23 | 31 | 12.9 | 22.5 | 0.00 | 0.00 | 0.00 | 72 | 1013.4 |
| 20260507190516 | 23 | 34 | 12.9 | 22.5 | 0.00 | 0.00 | 0.00 | 72 | 1013.3 |
| 20260507190416 | 24 | 4 | 12.9 | 22.5 | 0.00 | 0.00 | 0.00 | 73 | 1013.3 |
| 20260507190316 | 24 | 21 | 12.9 | 22.5 | 0.00 | 0.00 | 0.00 | 73 | 1013.3 |
| 20260507190215 | 23 | 20 | 11.3 | 22.5 | 0.00 | 0.00 | 0.00 | 73 | 1013.3 |
| 20260507190118 | 23 | 28 | 12.9 | 20.9 | 0.00 | 0.00 | 0.00 | 73 | 1013.2 |
| 20260507190017 | 23 | 6 | 14.5 | 20.9 | 0.00 | 0.00 | 0.00 | 73 | 1013.3 |
| 20260507185916 | 23 | 23 | 14.5 | 20.9 | 0.00 | 0.00 | 0.00 | 73 | 1013.3 |
| 20260507185815 | 23 | 18 | 12.9 | 20.9 | 0.00 | 0.00 | 0.00 | 73 | 1013.3 |
| 20260507185717 | 23 | 0 | 12.9 | 22.5 | 0.00 | 0.00 | 0.00 | 73 | 1013.2 |
| 20260507185615 | 23 | 0 | 12.9 | 22.5 | 0.00 | 0.00 | 0.00 | 73 | 1013.2 |
| 20260507185516 | 23 | 13 | 9.7 | 22.5 | 0.00 | 0.00 | 0.00 | 73 | 1013.1 |
| 20260507185416 | 23 | 3 | 9.7 | 22.5 | 0.00 | 0.00 | 0.00 | 74 | 1013.2 |
| 20260507185315 | 23 | 24 | 11.3 | 22.5 | 0.00 | 0.00 | 0.00 | 73 | 1013.1 |
| 20260507185216 | 23 | 0 | 11.3 | 22.5 | 0.00 | 0.00 | 0.00 | 73 | 1013.1 |
| 20260507185116 | 23 | 0 | 11.3 | 22.5 | 0.00 | 0.00 | 0.00 | 72 | 1013.2 |
| 20260507185016 | 23 | 0 | 11.3 | 22.5 | 0.00 | 0.00 | 0.00 | 72 | 1013.2 |
| 20260507184915 | 24 | 214 | 16.1 | 22.5 | 0.00 | 0.00 | 0.00 | 72 | 1013.2 |
| 20260507184815 | 24 | 11 | 14.5 | 22.5 | 0.00 | 0.00 | 0.00 | 72 | 1013.2 |
| 20260507184716 | 24 | 8 | 12.9 | 20.9 | 0.00 | 0.00 | 0.00 | 72 | 1013.2 |
| 20260507184615 | 24 | 0 | 11.3 | 19.3 | 0.00 | 0.00 | 0.00 | 73 | 1013.3 |
| 20260507184516 | 24 | 34 | 9.7 | 19.3 | 0.00 | 0.00 | 0.00 | 73 | 1013.3 |
| 20260507184417 | 24 | 0 | 6.4 | 19.3 | 0.00 | 0.00 | 0.00 | 73 | 1013.2 |
| 20260507184317 | 23 | 11 | 6.4 | 19.3 | 0.00 | 0.00 | 0.00 | 74 | 1013.3 |
| 20260507184215 | 23 | 24 | 8.0 | 19.3 | 0.00 | 0.00 | 0.00 | 73 | 1013.3 |
| 20260507184115 | 23 | 8 | 9.7 | 19.3 | 0.00 | 0.00 | 0.00 | 73 | 1013.4 |
| 20260507184017 | 23 | 0 | 11.3 | 19.3 | 0.00 | 0.00 | 0.00 | 73 | 1013.3 |
| 20260507183916 | 23 | 0 | 9.7 | 19.3 | 0.00 | 0.00 | 0.00 | 74 | 1013.3 |
| 20260507183816 | 23 | 0 | 9.7 | 17.7 | 0.00 | 0.00 | 0.00 | 73 | 1013.3 |
| 20260507183716 | 23 | 0 | 11.3 | 17.7 | 0.00 | 0.00 | 0.00 | 74 | 1013.3 |
| 20260507183617 | 23 | 0 | 12.9 | 17.7 | 0.00 | 0.00 | 0.00 | 73 | 1013.3 |
| 20260507183516 | 23 | 0 | 8.0 | 17.7 | 0.00 | 0.00 | 0.00 | 75 | 1013.4 |
| 20260507183415 | 23 | 11 | 8.0 | 17.7 | 0.00 | 0.00 | 0.00 | 75 | 1013.3 |
| 20260507183317 | 23 | 0 | 9.7 | 22.5 | 0.00 | 0.00 | 0.00 | 75 | 1013.4 |
| 20260507183215 | 23 | 10 | 8.0 | 22.5 | 0.00 | 0.00 | 0.00 | 75 | 1013.4 |
| 20260507183115 | 23 | 3 | 9.7 | 22.5 | 0.00 | 0.00 | 0.00 | 74 | 1013.4 |
| 20260507183016 | 23 | 10 | 9.7 | 22.5 | 0.00 | 0.00 | 0.00 | 75 | 1013.5 |
| 20260507182916 | 23 | 0 | 8.0 | 22.5 | 0.00 | 0.00 | 0.00 | 74 | 1013.5 |
| 20260507182815 | 23 | 1 | 9.7 | 22.5 | 0.00 | 0.00 | 0.00 | 74 | 1013.3 |
| 20260507182715 | 23 | 0 | 9.7 | 22.5 | 0.00 | 0.00 | 0.00 | 74 | 1013.4 |
| 20260507182617 | 23 | 0 | 9.7 | 22.5 | 0.00 | 0.00 | 0.00 | 74 | 1013.4 |
| 20260507182514 | 23 | 0 | 12.9 | 22.5 | 0.00 | 0.00 | 0.00 | 75 | 1013.4 |
| 20260507182415 | 23 | 3 | 12.9 | 22.5 | 0.00 | 0.00 | 0.00 | 74 | 1013.5 |
| 20260507182316 | 23 | 0 | 9.7 | 20.9 | 0.00 | 0.00 | 0.00 | 75 | 1013.5 |
| 20260507182216 | 23 | 1 | 6.4 | 20.9 | 0.00 | 0.00 | 0.00 | 74 | 1013.4 |
| 20260507182115 | 23 | 1 | 9.7 | 20.9 | 0.00 | 0.00 | 0.00 | 73 | 1013.5 |
| 20260507182017 | 23 | 8 | 11.3 | 20.9 | 0.00 | 0.00 | 0.00 | 73 | 1013.5 |
| 20260507181916 | 23 | 0 | 11.3 | 20.9 | 0.00 | 0.00 | 0.00 | 73 | 1013.5 |
| 20260507181815 | 23 | 3 | 11.3 | 19.3 | 0.00 | 0.00 | 0.00 | 74 | 1013.5 |
| 20260507181715 | 23 | 30 | 9.7 | 19.3 | 0.00 | 0.00 | 0.00 | 74 | 1013.5 |
| 20260507181615 | 23 | 8 | 8.0 | 19.3 | 0.00 | 0.00 | 0.00 | 74 | 1013.5 |
| 20260507181515 | 23 | 0 | 8.0 | 19.3 | 0.00 | 0.00 | 0.00 | 74 | 1013.5 |
| 20260507181416 | 23 | 0 | 8.0 | 19.3 | 0.00 | 0.00 | 0.00 | 73 | 1013.4 |
| 20260507181314 | 23 | 0 | 9.7 | 19.3 | 0.00 | 0.00 | 0.00 | 74 | 1013.6 |
| 20260507181216 | 23 | 17 | 11.3 | 19.3 | 0.00 | 0.00 | 0.00 | 74 | 1013.6 |
| 20260507181114 | 23 | 0 | 11.3 | 19.3 | 0.00 | 0.00 | 0.00 | 75 | 1013.6 |
| 20260507181015 | 23 | 0 | 8.0 | 19.3 | 0.00 | 0.00 | 0.00 | 76 | 1013.6 |
| 20260507180915 | 23 | 0 | 4.8 | 19.3 | 0.00 | 0.00 | 0.00 | 76 | 1013.6 |
| 20260507180815 | 23 | 0 | 6.4 | 19.3 | 0.00 | 0.00 | 0.00 | 75 | 1013.7 |
| 20260507180715 | 22 | 0 | 9.7 | 19.3 | 0.00 | 0.00 | 0.00 | 76 | 1013.7 |
| 20260507180615 | 23 | 0 | 9.7 | 19.3 | 0.00 | 0.00 | 0.00 | 75 | 1013.7 |
| 20260507180514 | 23 | 0 | 6.4 | 19.3 | 0.00 | 0.00 | 0.00 | 74 | 1013.7 |
| 20260507180415 | 23 | 3 | 9.7 | 19.3 | 0.00 | 0.00 | 0.00 | 74 | 1013.7 |
| 20260507180316 | 23 | 3 | 9.7 | 19.3 | 0.00 | 0.00 | 0.00 | 74 | 1013.8 |
| 20260507180216 | 23 | 3 | 9.7 | 20.9 | 0.00 | 0.00 | 0.00 | 74 | 1013.8 |
| 20260507180116 | 23 | 3 | 9.7 | 20.9 | 0.00 | 0.00 | 0.00 | 74 | 1013.8 |
| 20260507180004 | 23 | 3 | 9.7 | 20.9 | 0.00 | 0.00 | 0.00 | 74 | 1013.8 |
| 20260507175902 | 23 | 0 | 9.7 | 20.9 | 0.00 | 0.00 | 0.00 | 74 | 1013.8 |
| 20260507175803 | 23 | 0 | 9.7 | 20.9 | 0.00 | 0.00 | 0.00 | 73 | 1013.8 |
| 20260507175704 | 23 | 0 | 11.3 | 20.9 | 0.00 | 0.00 | 0.00 | 73 | 1013.8 |
| 20260507175602 | 23 | 0 | 14.5 | 20.9 | 0.00 | 0.00 | 0.00 | 73 | 1013.8 |
| 20260507175502 | 23 | 25 | 12.9 | 20.9 | 0.00 | 0.00 | 0.00 | 73 | 1013.9 |
| 20260507175403 | 23 | 13 | 12.9 | 20.9 | 0.00 | 0.00 | 0.00 | 73 | 1013.8 |
| 20260507175306 | 23 | 0 | 12.9 | 20.9 | 0.00 | 0.00 | 0.00 | 74 | 1013.9 |
| 20260507175202 | 23 | 10 | 11.3 | 20.9 | 0.00 | 0.00 | 0.00 | 75 | 1013.8 |
| 20260507175102 | 23 | 17 | 11.3 | 20.9 | 0.00 | 0.00 | 0.00 | 74 | 1013.8 |
| 20260507175004 | 23 | 24 | 8.0 | 20.9 | 0.00 | 0.00 | 0.00 | 75 | 1013.9 |
| 20260507174902 | 23 | 1 | 6.4 | 20.9 | 0.00 | 0.00 | 0.00 | 75 | 1013.9 |
| 20260507174803 | 23 | 0 | 8.0 | 20.9 | 0.00 | 0.00 | 0.00 | 75 | 1014.0 |
| 20260507174704 | 22 | 0 | 12.9 | 20.9 | 0.00 | 0.00 | 0.00 | 75 | 1014.1 |
| 20260507174602 | 23 | 13 | 14.5 | 20.9 | 0.00 | 0.00 | 0.00 | 74 | 1014.0 |
| 20260507174503 | 23 | 21 | 12.9 | 20.9 | 0.00 | 0.00 | 0.00 | 74 | 1014.1 |
| 20260507174403 | 23 | 11 | 12.9 | 20.9 | 0.00 | 0.00 | 0.00 | 75 | 1014.1 |
| 20260507174302 | 23 | 10 | 9.7 | 20.9 | 0.00 | 0.00 | 0.00 | 75 | 1014.1 |
| 20260507174202 | 23 | 16 | 9.7 | 20.9 | 0.00 | 0.00 | 0.00 | 75 | 1014.1 |
| 20260507174101 | 22 | 4 | 9.7 | 20.9 | 0.00 | 0.00 | 0.00 | 74 | 1014.1 |
| 20260507174004 | 22 | 17 | 11.3 | 20.9 | 0.00 | 0.00 | 0.00 | 74 | 1014.1 |
| 20260507173902 | 22 | 14 | 11.3 | 20.9 | 0.00 | 0.00 | 0.00 | 74 | 1014.0 |
| 20260507173802 | 23 | 6 | 11.3 | 19.3 | 0.00 | 0.00 | 0.00 | 74 | 1014.0 |
| 20260507173703 | 23 | 18 | 12.9 | 19.3 | 0.00 | 0.00 | 0.00 | 73 | 1014.0 |
| 20260507173603 | 23 | 27 | 12.9 | 19.3 | 0.00 | 0.00 | 0.00 | 74 | 1014.1 |
| 20260507173504 | 23 | 0 | 9.7 | 17.7 | 0.00 | 0.00 | 0.00 | 75 | 1014.0 |
| 20260507173402 | 23 | 24 | 8.0 | 17.7 | 0.00 | 0.00 | 0.00 | 75 | 1014.0 |
| 20260507173303 | 22 | 0 | 9.7 | 17.7 | 0.00 | 0.00 | 0.00 | 75 | 1014.0 |
| 20260507173202 | 22 | 0 | 9.7 | 17.7 | 0.00 | 0.00 | 0.00 | 74 | 1014.1 |
| 20260507173101 | 22 | 0 | 9.7 | 17.7 | 0.00 | 0.00 | 0.00 | 74 | 1014.1 |
| 20260507173002 | 22 | 20 | 11.3 | 17.7 | 0.00 | 0.00 | 0.00 | 74 | 1014.1 |
| 20260507172903 | 22 | 7 | 9.7 | 17.7 | 0.00 | 0.00 | 0.00 | 74 | 1014.1 |
| 20260507172802 | 22 | 18 | 9.7 | 14.5 | 0.00 | 0.00 | 0.00 | 74 | 1014.0 |
| 20260507172705 | 22 | 16 | 8.0 | 14.5 | 0.00 | 0.00 | 0.00 | 74 | 1014.1 |
| 20260507172603 | 22 | 21 | 9.7 | 14.5 | 0.00 | 0.00 | 0.00 | 74 | 1014.1 |
| 20260507172502 | 23 | 180 | 9.7 | 14.5 | 0.00 | 0.00 | 0.00 | 74 | 1014.1 |
| 20260507172402 | 22 | 11 | 6.4 | 17.7 | 0.00 | 0.00 | 0.00 | 74 | 1014.1 |
| 20260507172307 | 22 | 0 | 8.0 | 19.3 | 0.00 | 0.00 | 0.00 | 74 | 1014.1 |
| 20260507172202 | 23 | 0 | 9.7 | 19.3 | 0.00 | 0.00 | 0.00 | 75 | 1014.2 |
| 20260507172102 | 22 | 0 | 8.0 | 19.3 | 0.00 | 0.00 | 0.00 | 76 | 1014.2 |
| 20260507172004 | 22 | 8 | 6.4 | 19.3 | 0.00 | 0.00 | 0.00 | 76 | 1014.2 |
| 20260507171903 | 22 | 8 | 6.4 | 19.3 | 0.00 | 0.00 | 0.00 | 76 | 1014.2 |
| 20260507171802 | 22 | 8 | 6.4 | 19.3 | 0.00 | 0.00 | 0.00 | 76 | 1014.1 |
| 20260507171702 | 22 | 4 | 6.4 | 19.3 | 0.00 | 0.00 | 0.00 | 76 | 1014.2 |
| 20260507171603 | 22 | 13 | 8.0 | 19.3 | 0.00 | 0.00 | 0.00 | 76 | 1014.2 |
| 20260507171502 | 22 | 169 | 11.3 | 19.3 | 0.00 | 0.00 | 0.00 | 76 | 1014.2 |
| 20260507171403 | 22 | 13 | 9.7 | 19.3 | 0.00 | 0.00 | 0.00 | 76 | 1014.3 |
| 20260507171303 | 22 | 155 | 9.7 | 16.1 | 0.00 | 0.00 | 0.00 | 77 | 1014.3 |
| 20260507171202 | 22 | 7 | 9.7 | 20.9 | 0.00 | 0.00 | 0.00 | 76 | 1014.3 |
| 20260507171102 | 22 | 3 | 6.4 | 20.9 | 0.00 | 0.00 | 0.00 | 77 | 1014.3 |
| 20260507171002 | 21 | 16 | 6.4 | 20.9 | 0.00 | 0.00 | 0.00 | 77 | 1014.3 |
| 20260507170902 | 21 | 8 | 8.0 | 20.9 | 0.00 | 0.00 | 0.00 | 77 | 1014.4 |
| 20260507170801 | 21 | 10 | 8.0 | 20.9 | 0.00 | 0.00 | 0.00 | 78 | 1014.3 |
| 20260507170702 | 21 | 1 | 9.7 | 20.9 | 0.00 | 0.00 | 0.00 | 78 | 1014.4 |
| 20260507170603 | 21 | 157 | 11.3 | 20.9 | 0.00 | 0.00 | 0.00 | 78 | 1014.3 |
| 20260507170503 | 21 | 20 | 14.5 | 20.9 | 0.00 | 0.00 | 0.00 | 78 | 1014.3 |
| 20260507170402 | 21 | 20 | 14.5 | 20.9 | 0.00 | 0.00 | 0.00 | 78 | 1014.4 |
| 20260507170303 | 21 | 20 | 14.5 | 20.9 | 0.00 | 0.00 | 0.00 | 78 | 1014.4 |
| 20260507170202 | 21 | 18 | 12.9 | 19.3 | 0.00 | 0.00 | 0.00 | 77 | 1014.4 |
| 20260507170103 | 21 | 21 | 12.9 | 19.3 | 0.00 | 0.00 | 0.00 | 77 | 1014.3 |
| 20260507170003 | 21 | 20 | 11.3 | 17.7 | 0.00 | 0.00 | 0.00 | 77 | 1014.3 |
| 20260507165904 | 21 | 21 | 9.7 | 17.7 | 0.00 | 0.00 | 0.00 | 78 | 1014.3 |
| 20260507165803 | 21 | 23 | 9.7 | 20.9 | 0.00 | 0.00 | 0.00 | 77 | 1014.3 |
| 20260507165702 | 21 | 6 | 11.3 | 20.9 | 0.00 | 0.00 | 0.00 | 77 | 1014.3 |
| 20260507165602 | 21 | 11 | 11.3 | 20.9 | 0.00 | 0.00 | 0.00 | 77 | 1014.3 |
| 20260507165502 | 21 | 20 | 11.3 | 20.9 | 0.00 | 0.00 | 0.00 | 77 | 1014.2 |
| 20260507165403 | 21 | 8 | 9.7 | 20.9 | 0.00 | 0.00 | 0.00 | 77 | 1014.3 |
| 20260507165306 | 21 | 10 | 8.0 | 20.9 | 0.00 | 0.00 | 0.00 | 78 | 1014.3 |
| 20260507165202 | 21 | 7 | 9.7 | 20.9 | 0.00 | 0.00 | 0.00 | 78 | 1014.2 |
| 20260507165103 | 21 | 1 | 12.9 | 20.9 | 0.00 | 0.00 | 0.00 | 76 | 1014.1 |
| 20260507165003 | 21 | 0 | 14.5 | 20.9 | 0.00 | 0.00 | 0.00 | 76 | 1014.1 |
| 20260507164903 | 21 | 7 | 9.7 | 20.9 | 0.00 | 0.00 | 0.00 | 77 | 1014.1 |
| 20260507164803 | 21 | 204 | 6.4 | 19.3 | 0.00 | 0.00 | 0.00 | 77 | 1014.0 |
| 20260507164701 | 21 | 0 | 9.7 | 19.3 | 0.00 | 0.00 | 0.00 | 77 | 1014.0 |
| 20260507164603 | 21 | 1 | 9.7 | 20.9 | 0.00 | 0.00 | 0.00 | 76 | 1014.1 |
| 20260507164504 | 21 | 207 | 8.0 | 20.9 | 0.00 | 0.00 | 0.00 | 76 | 1014.0 |
| 20260507164402 | 21 | 8 | 8.0 | 20.9 | 0.00 | 0.00 | 0.00 | 76 | 1014.0 |
| 20260507164302 | 21 | 8 | 9.7 | 22.5 | 0.00 | 0.00 | 0.00 | 76 | 1014.1 |
| 20260507164202 | 21 | 0 | 11.3 | 22.5 | 0.00 | 0.00 | 0.00 | 76 | 1014.1 |
| 20260507164102 | 21 | 16 | 9.7 | 22.5 | 0.00 | 0.00 | 0.00 | 77 | 1014.1 |
| 20260507164002 | 21 | 11 | 8.0 | 22.5 | 0.00 | 0.00 | 0.00 | 77 | 1014.1 |
| 20260507163903 | 21 | 10 | 11.3 | 22.5 | 0.00 | 0.00 | 0.00 | 76 | 1014.0 |
| 20260507163802 | 21 | 14 | 12.9 | 22.5 | 0.00 | 0.00 | 0.00 | 76 | 1014.1 |
| 20260507163702 | 21 | 21 | 11.3 | 24.1 | 0.00 | 0.00 | 0.00 | 77 | 1014.1 |
| 20260507163602 | 21 | 23 | 11.3 | 24.1 | 0.00 | 0.00 | 0.00 | 76 | 1014.1 |
| 20260507163503 | 21 | 0 | 11.3 | 24.1 | 0.00 | 0.00 | 0.00 | 77 | 1014.1 |
| 20260507163402 | 21 | 204 | 12.9 | 24.1 | 0.00 | 0.00 | 0.00 | 76 | 1014.0 |
| 20260507163302 | 21 | 200 | 11.3 | 24.1 | 0.00 | 0.00 | 0.00 | 77 | 1014.0 |
| 20260507163201 | 21 | 0 | 8.0 | 24.1 | 0.00 | 0.00 | 0.00 | 78 | 1014.0 |
| 20260507163101 | 21 | 14 | 3.2 | 24.1 | 0.00 | 0.00 | 0.00 | 78 | 1014.0 |
| 20260507163004 | 21 | 3 | 4.8 | 24.1 | 0.00 | 0.00 | 0.00 | 78 | 1013.8 |
| 20260507162902 | 21 | 4 | 12.9 | 24.1 | 0.00 | 0.00 | 0.00 | 78 | 1013.8 |
| 20260507162803 | 21 | 25 | 12.9 | 24.1 | 0.00 | 0.00 | 0.00 | 78 | 1013.8 |
| 20260507162702 | 21 | 11 | 11.3 | 24.1 | 0.00 | 0.00 | 0.00 | 77 | 1013.8 |
| 20260507162603 | 21 | 11 | 14.5 | 24.1 | 0.00 | 0.00 | 0.00 | 78 | 1013.8 |
| 20260507162504 | 21 | 23 | 12.9 | 24.1 | 0.00 | 0.00 | 0.00 | 78 | 1013.9 |
| 20260507162402 | 21 | 31 | 8.0 | 24.1 | 0.00 | 0.00 | 0.00 | 78 | 1013.9 |
| 20260507162306 | 20 | 0 | 8.0 | 24.1 | 0.00 | 0.00 | 0.00 | 78 | 1013.8 |
| 20260507162203 | 20 | 17 | 11.3 | 24.1 | 0.00 | 0.00 | 0.00 | 78 | 1013.7 |
| 20260507162103 | 20 | 4 | 14.5 | 29.0 | 0.00 | 0.00 | 0.00 | 78 | 1013.6 |
| 20260507162004 | 20 | 27 | 14.5 | 29.0 | 0.00 | 0.00 | 0.00 | 78 | 1013.7 |
| 20260507161903 | 20 | 190 | 16.1 | 29.0 | 0.00 | 0.00 | 0.00 | 78 | 1013.6 |
| 20260507161803 | 20 | 10 | 17.7 | 29.0 | 0.00 | 0.00 | 0.00 | 79 | 1013.6 |
| 20260507161704 | 20 | 11 | 16.1 | 29.0 | 0.00 | 0.00 | 0.00 | 79 | 1013.6 |
| 20260507161602 | 20 | 17 | 14.5 | 29.0 | 0.00 | 0.00 | 0.00 | 78 | 1013.6 |
| 20260507161503 | 20 | 42 | 14.5 | 29.0 | 0.00 | 0.00 | 0.00 | 78 | 1013.6 |
| 20260507161404 | 20 | 13 | 14.5 | 29.0 | 0.00 | 0.00 | 0.00 | 79 | 1013.6 |
| 20260507161301 | 20 | 6 | 17.7 | 29.0 | 0.00 | 0.00 | 0.00 | 78 | 1013.7 |
| 20260507161202 | 20 | 20 | 17.7 | 29.0 | 0.00 | 0.00 | 0.00 | 79 | 1013.7 |
| 20260507161102 | 20 | 10 | 16.1 | 24.1 | 0.00 | 0.00 | 0.00 | 79 | 1013.8 |
| 20260507161002 | 20 | 24 | 12.9 | 24.1 | 0.00 | 0.00 | 0.00 | 79 | 1013.8 |
| 20260507160902 | 20 | 21 | 11.3 | 17.7 | 0.00 | 0.00 | 0.00 | 80 | 1013.8 |
| 20260507160804 | 20 | 16 | 12.9 | 20.9 | 0.00 | 0.00 | 0.00 | 80 | 1013.9 |
| 20260507160703 | 20 | 11 | 11.3 | 20.9 | 0.00 | 0.00 | 0.00 | 80 | 1013.9 |
| 20260507160602 | 20 | 16 | 8.0 | 20.9 | 0.00 | 0.00 | 0.00 | 81 | 1014.0 |
| 20260507160503 | 20 | 10 | 6.4 | 20.9 | 0.00 | 0.00 | 0.00 | 81 | 1014.0 |
| 20260507160402 | 20 | 0 | 9.7 | 20.9 | 0.00 | 0.00 | 0.00 | 81 | 1014.1 |
| 20260507160303 | 20 | 6 | 8.0 | 20.9 | 0.00 | 0.00 | 0.00 | 81 | 1014.1 |
| 20260507160202 | 20 | 10 | 8.0 | 20.9 | 0.00 | 0.00 | 0.00 | 81 | 1014.1 |
| 20260507160002 | 19 | 13 | 14.5 | 20.9 | 0.00 | 0.00 | 0.00 | 81 | 1014.1 |
| 20260507155901 | 19 | 11 | 16.1 | 20.9 | 0.00 | 0.00 | 0.00 | 81 | 1014.2 |
| 20260507155803 | 19 | 14 | 14.5 | 20.9 | 0.00 | 0.00 | 0.00 | 82 | 1014.1 |
| 20260507155703 | 19 | 11 | 11.3 | 19.3 | 0.00 | 0.00 | 0.00 | 82 | 1014.1 |
| 20260507155603 | 19 | 0 | 9.7 | 19.3 | 0.00 | 0.00 | 0.00 | 82 | 1014.2 |
| 20260507155502 | 19 | 0 | 11.3 | 19.3 | 0.00 | 0.00 | 0.00 | 82 | 1014.2 |
| 20260507155401 | 19 | 0 | 12.9 | 19.3 | 0.00 | 0.00 | 0.00 | 82 | 1014.2 |
| 20260507155305 | 19 | 0 | 9.7 | 19.3 | 0.00 | 0.00 | 0.00 | 82 | 1014.3 |
| 20260507155202 | 19 | 7 | 8.0 | 14.5 | 0.00 | 0.00 | 0.00 | 82 | 1014.2 |
| 20260507155103 | 19 | 0 | 8.0 | 19.3 | 0.00 | 0.00 | 0.00 | 83 | 1014.2 |
| 20260507155003 | 19 | 0 | 8.0 | 19.3 | 0.00 | 0.00 | 0.00 | 83 | 1014.2 |
| 20260507154902 | 19 | 0 | 8.0 | 19.3 | 0.00 | 0.00 | 0.00 | 82 | 1014.2 |
| 20260507154801 | 19 | 7 | 9.7 | 19.3 | 0.00 | 0.00 | 0.00 | 82 | 1014.2 |
| 20260507154703 | 19 | 0 | 9.7 | 19.3 | 0.00 | 0.00 | 0.00 | 82 | 1014.2 |
| 20260507154601 | 19 | 82 | 6.4 | 19.3 | 0.00 | 0.00 | 0.00 | 83 | 1014.2 |
| 20260507154502 | 18 | 1 | 6.4 | 19.3 | 0.00 | 0.00 | 0.00 | 83 | 1014.3 |
| 20260507154403 | 18 | 8 | 8.0 | 19.3 | 0.00 | 0.00 | 0.00 | 83 | 1014.3 |
| 20260507154302 | 18 | 3 | 11.3 | 19.3 | 0.00 | 0.00 | 0.00 | 83 | 1014.3 |
| 20260507154202 | 18 | 3 | 12.9 | 19.3 | 0.00 | 0.00 | 0.00 | 83 | 1014.2 |
| 20260507154104 | 18 | 0 | 12.9 | 19.3 | 0.00 | 0.00 | 0.00 | 83 | 1014.2 |
| 20260507154005 | 18 | 6 | 9.7 | 19.3 | 0.00 | 0.00 | 0.00 | 84 | 1014.2 |
| 20260507153903 | 18 | 4 | 6.4 | 19.3 | 0.00 | 0.00 | 0.00 | 83 | 1014.2 |
| 20260507153803 | 18 | 4 | 9.7 | 19.3 | 0.00 | 0.00 | 0.00 | 84 | 1014.2 |
| 20260507153703 | 18 | 4 | 9.7 | 19.3 | 0.00 | 0.00 | 0.00 | 84 | 1014.3 |
| 20260507153603 | 18 | 4 | 9.7 | 20.9 | 0.00 | 0.00 | 0.00 | 84 | 1014.3 |
| 20260507153503 | 18 | 1 | 9.7 | 20.9 | 0.00 | 0.00 | 0.00 | 84 | 1014.3 |
| 20260507153403 | 18 | 0 | 9.7 | 20.9 | 0.00 | 0.00 | 0.00 | 84 | 1014.3 |
| 20260507153303 | 18 | 0 | 9.7 | 20.9 | 0.00 | 0.00 | 0.00 | 84 | 1014.3 |
| 20260507153204 | 18 | 0 | 9.7 | 20.9 | 0.00 | 0.00 | 0.00 | 85 | 1014.3 |
| 20260507153102 | 18 | 4 | 11.3 | 20.9 | 0.00 | 0.00 | 0.00 | 85 | 1014.4 |
| 20260507153004 | 18 | 3 | 11.3 | 20.9 | 0.00 | 0.00 | 0.00 | 85 | 1014.3 |
| 20260507152901 | 18 | 4 | 12.9 | 20.9 | 0.00 | 0.00 | 0.00 | 85 | 1014.3 |
| 20260507152801 | 18 | 1 | 12.9 | 20.9 | 0.00 | 0.00 | 0.00 | 86 | 1014.3 |
| 20260507152703 | 17 | 0 | 11.3 | 20.9 | 0.00 | 0.00 | 0.00 | 86 | 1014.4 |
| 20260507152602 | 17 | 4 | 9.7 | 20.9 | 0.00 | 0.00 | 0.00 | 86 | 1014.4 |
| 20260507152502 | 17 | 6 | 11.3 | 20.9 | 0.00 | 0.00 | 0.00 | 86 | 1014.4 |
| 20260507152404 | 17 | 6 | 9.7 | 20.9 | 0.00 | 0.00 | 0.00 | 86 | 1014.4 |
| 20260507152305 | 17 | 6 | 9.7 | 20.9 | 0.00 | 0.00 | 0.00 | 86 | 1014.4 |
| 20260507152202 | 17 | 6 | 9.7 | 20.9 | 0.00 | 0.00 | 0.00 | 86 | 1014.4 |
| 20260507152102 | 17 | 1 | 11.3 | 20.9 | 0.00 | 0.00 | 0.00 | 86 | 1014.4 |
| 20260507152004 | 17 | 6 | 14.5 | 24.1 | 0.00 | 0.00 | 0.00 | 86 | 1014.4 |
| 20260507151903 | 17 | 3 | 14.5 | 24.1 | 0.00 | 0.00 | 0.00 | 86 | 1014.3 |
| 20260507151802 | 17 | 1 | 12.9 | 24.1 | 0.00 | 0.00 | 0.00 | 86 | 1014.3 |
| 20260507151704 | 17 | 3 | 11.3 | 24.1 | 0.00 | 0.00 | 0.00 | 86 | 1014.3 |
| 20260507151602 | 17 | 3 | 12.9 | 24.1 | 0.00 | 0.00 | 0.00 | 86 | 1014.3 |
| 20260507151502 | 17 | 0 | 12.9 | 24.1 | 0.00 | 0.00 | 0.00 | 86 | 1014.3 |
| 20260507151402 | 17 | 0 | 11.3 | 24.1 | 0.00 | 0.00 | 0.00 | 86 | 1014.2 |
| 20260507151302 | 17 | 1 | 12.9 | 24.1 | 0.00 | 0.00 | 0.00 | 86 | 1014.3 |
| 20260507151202 | 17 | 1 | 14.5 | 24.1 | 0.00 | 0.00 | 0.00 | 86 | 1014.2 |
| 20260507151102 | 17 | 0 | 12.9 | 24.1 | 0.00 | 0.00 | 0.00 | 87 | 1014.2 |
| 20260507151004 | 17 | 0 | 8.0 | 24.1 | 0.00 | 0.00 | 0.00 | 87 | 1014.2 |
| 20260507150902 | 17 | 7 | 9.7 | 24.1 | 0.00 | 0.00 | 0.00 | 87 | 1014.2 |
| 20260507150802 | 17 | 1 | 9.7 | 24.1 | 0.00 | 0.00 | 0.00 | 87 | 1014.1 |
| 20260507150703 | 17 | 4 | 9.7 | 24.1 | 0.00 | 0.00 | 0.00 | 87 | 1014.1 |
| 20260507150603 | 17 | 6 | 9.7 | 24.1 | 0.00 | 0.00 | 0.00 | 87 | 1014.1 |
| 20260507150503 | 17 | 6 | 14.5 | 24.1 | 0.00 | 0.00 | 0.00 | 87 | 1014.1 |
| 20260507150402 | 17 | 3 | 17.7 | 24.1 | 0.00 | 0.00 | 0.00 | 87 | 1014.1 |
| 20260507150303 | 17 | 3 | 12.9 | 24.1 | 0.00 | 0.00 | 0.00 | 87 | 1014.3 |
| 20260507150202 | 17 | 1 | 11.3 | 22.5 | 0.00 | 0.00 | 0.00 | 87 | 1014.2 |
| 20260507150005 | 17 | 4 | 11.3 | 22.5 | 0.00 | 0.00 | 0.00 | 87 | 1014.3 |
| 20260507145903 | 17 | 3 | 12.9 | 22.5 | 0.00 | 0.00 | 0.00 | 87 | 1014.3 |
| 20260507145802 | 17 | 0 | 14.5 | 22.5 | 0.00 | 0.00 | 0.00 | 87 | 1014.3 |
| 20260507145703 | 17 | 4 | 14.5 | 22.5 | 0.00 | 0.00 | 0.00 | 87 | 1014.3 |
| 20260507145603 | 17 | 52 | 11.3 | 22.5 | 0.00 | 0.00 | 0.00 | 87 | 1014.2 |
| 20260507145503 | 17 | 0 | 14.5 | 22.5 | 0.00 | 0.00 | 0.00 | 87 | 1014.2 |
| 20260507145402 | 17 | 52 | 14.5 | 22.5 | 0.00 | 0.00 | 0.00 | 87 | 1014.3 |
| 20260507145306 | 17 | 48 | 9.7 | 22.5 | 0.00 | 0.00 | 0.00 | 87 | 1014.3 |
| 20260507145203 | 17 | 52 | 8.0 | 22.5 | 0.00 | 0.00 | 0.00 | 87 | 1014.3 |
| 20260507145103 | 17 | 0 | 9.7 | 22.5 | 0.00 | 0.00 | 0.00 | 87 | 1014.2 |
| 20260507145003 | 17 | 52 | 11.3 | 22.5 | 0.00 | 0.00 | 0.00 | 87 | 1014.2 |
| 20260507144903 | 17 | 52 | 9.7 | 20.9 | 0.00 | 0.00 | 0.00 | 87 | 1014.1 |
| 20260507144803 | 17 | 3 | 11.3 | 20.9 | 0.00 | 0.00 | 0.00 | 87 | 1014.1 |
| 20260507144702 | 17 | 1 | 12.9 | 20.9 | 0.00 | 0.00 | 0.00 | 87 | 1014.0 |
| 20260507144603 | 17 | 0 | 11.3 | 25.7 | 0.00 | 0.00 | 0.00 | 87 | 1014.1 |
| 20260507144502 | 17 | 0 | 11.3 | 25.7 | 0.00 | 0.00 | 0.00 | 87 | 1014.1 |
| 20260507144402 | 17 | 4 | 9.7 | 25.7 | 0.00 | 0.00 | 0.00 | 87 | 1014.1 |
| 20260507144302 | 17 | 6 | 11.3 | 25.7 | 0.00 | 0.00 | 0.00 | 87 | 1014.1 |
| 20260507144203 | 17 | 1 | 11.3 | 25.7 | 0.00 | 0.00 | 0.00 | 87 | 1014.1 |
| 20260507144103 | 17 | 6 | 12.9 | 25.7 | 0.00 | 0.00 | 0.00 | 87 | 1014.1 |
| 20260507144002 | 17 | 6 | 14.5 | 25.7 | 0.00 | 0.00 | 0.00 | 87 | 1014.1 |
| 20260507143904 | 17 | 3 | 11.3 | 25.7 | 0.00 | 0.00 | 0.00 | 87 | 1014.0 |
| 20260507143803 | 17 | 4 | 14.5 | 25.7 | 0.00 | 0.00 | 0.00 | 87 | 1014.0 |
| 20260507143703 | 17 | 6 | 14.5 | 25.7 | 0.00 | 0.00 | 0.00 | 87 | 1014.0 |
| 20260507143603 | 17 | 6 | 11.3 | 25.7 | 0.00 | 0.00 | 0.00 | 87 | 1013.9 |
| 20260507143504 | 17 | 7 | 11.3 | 24.1 | 0.00 | 0.00 | 0.00 | 87 | 1013.9 |
| 20260507143402 | 17 | 6 | 6.4 | 24.1 | 0.00 | 0.00 | 0.00 | 88 | 1013.9 |
| 20260507143303 | 17 | 4 | 6.4 | 24.1 | 0.00 | 0.00 | 0.00 | 88 | 1013.9 |
| 20260507143202 | 17 | 1 | 8.0 | 24.1 | 0.00 | 0.00 | 0.00 | 87 | 1013.8 |
| 20260507143102 | 17 | 1 | 9.7 | 24.1 | 0.00 | 0.00 | 0.00 | 88 | 1013.9 |
| 20260507143001 | 17 | 3 | 11.3 | 24.1 | 0.00 | 0.00 | 0.00 | 88 | 1013.9 |
| 20260507142901 | 17 | 3 | 14.5 | 24.1 | 0.00 | 0.00 | 0.00 | 88 | 1013.9 |
| 20260507142804 | 17 | 10 | 14.5 | 24.1 | 0.00 | 0.00 | 0.00 | 88 | 1013.9 |
| 20260507142702 | 17 | 4 | 12.9 | 24.1 | 0.00 | 0.00 | 0.00 | 88 | 1013.9 |
| 20260507142603 | 17 | 7 | 12.9 | 24.1 | 0.00 | 0.00 | 0.00 | 88 | 1013.9 |
| 20260507142504 | 17 | 3 | 14.5 | 24.1 | 0.00 | 0.00 | 0.00 | 88 | 1013.8 |
| 20260507142402 | 17 | 0 | 12.9 | 24.1 | 0.00 | 0.00 | 0.00 | 88 | 1013.9 |
| 20260507142306 | 17 | 7 | 12.9 | 24.1 | 0.00 | 0.00 | 0.00 | 88 | 1013.8 |
| 20260507142203 | 17 | 6 | 12.9 | 24.1 | 0.00 | 0.00 | 0.00 | 88 | 1013.9 |
| 20260507142103 | 17 | 52 | 12.9 | 24.1 | 0.00 | 0.00 | 0.00 | 88 | 1013.9 |
| 20260507142005 | 17 | 1 | 8.0 | 24.1 | 0.00 | 0.00 | 0.00 | 88 | 1013.8 |
| 20260507141903 | 17 | 7 | 9.7 | 24.1 | 0.00 | 0.00 | 0.00 | 88 | 1013.8 |
| 20260507141803 | 17 | 7 | 9.7 | 24.1 | 0.00 | 0.00 | 0.00 | 88 | 1013.8 |
| 20260507141703 | 17 | 7 | 9.7 | 24.1 | 0.00 | 0.00 | 0.00 | 88 | 1013.8 |
| 20260507141602 | 17 | 3 | 8.0 | 19.3 | 0.00 | 0.00 | 0.00 | 88 | 1013.9 |
| 20260507141505 | 17 | 6 | 9.7 | 22.5 | 0.00 | 0.00 | 0.00 | 88 | 1013.9 |
| 20260507141402 | 17 | 3 | 9.7 | 22.5 | 0.00 | 0.00 | 0.00 | 88 | 1014.0 |
| 20260507141302 | 17 | 55 | 8.0 | 22.5 | 0.00 | 0.00 | 0.00 | 88 | 1013.9 |
| 20260507141203 | 17 | 7 | 11.3 | 22.5 | 0.00 | 0.00 | 0.00 | 88 | 1013.9 |
| 20260507141103 | 17 | 54 | 12.9 | 22.5 | 0.00 | 0.00 | 0.00 | 88 | 1013.8 |
| 20260507141006 | 17 | 0 | 12.9 | 22.5 | 0.00 | 0.00 | 0.00 | 88 | 1013.9 |
| 20260507140902 | 17 | 55 | 11.3 | 22.5 | 0.00 | 0.00 | 0.00 | 88 | 1013.8 |
| 20260507140803 | 17 | 52 | 9.7 | 22.5 | 0.00 | 0.00 | 0.00 | 88 | 1013.9 |
| 20260507140702 | 17 | 0 | 11.3 | 22.5 | 0.00 | 0.00 | 0.00 | 88 | 1013.9 |
| 20260507140604 | 17 | 0 | 14.5 | 22.5 | 0.00 | 0.00 | 0.00 | 88 | 1013.8 |
| 20260507140504 | 17 | 0 | 11.3 | 22.5 | 0.00 | 0.00 | 0.00 | 88 | 1013.7 |
| 20260507140403 | 17 | 0 | 11.3 | 22.5 | 0.00 | 0.00 | 0.00 | 88 | 1013.8 |
| 20260507140301 | 17 | 1 | 12.9 | 22.5 | 0.00 | 0.00 | 0.00 | 88 | 1013.8 |
| 20260507140202 | 17 | 6 | 12.9 | 22.5 | 0.00 | 0.00 | 0.00 | 88 | 1013.8 |
| 20260507140105 | 17 | 4 | 11.3 | 22.5 | 0.00 | 0.00 | 0.00 | 88 | 1013.8 |
| 20260507140004 | 17 | 3 | 11.3 | 20.9 | 0.00 | 0.00 | 0.00 | 88 | 1013.9 |
| 20260507135903 | 17 | 3 | 11.3 | 20.9 | 0.00 | 0.00 | 0.00 | 88 | 1013.9 |
| 20260507135803 | 17 | 7 | 11.3 | 20.9 | 0.00 | 0.00 | 0.00 | 88 | 1014.0 |
| 20260507135703 | 17 | 4 | 11.3 | 20.9 | 0.00 | 0.00 | 0.00 | 88 | 1014.0 |
| 20260507135602 | 17 | 4 | 8.0 | 17.7 | 0.00 | 0.00 | 0.00 | 88 | 1014.0 |
| 20260507135503 | 17 | 54 | 6.4 | 17.7 | 0.00 | 0.00 | 0.00 | 88 | 1014.1 |
| 20260507135402 | 17 | 4 | 6.4 | 17.7 | 0.00 | 0.00 | 0.00 | 88 | 1014.0 |
| 20260507135306 | 17 | 3 | 6.4 | 17.7 | 0.00 | 0.00 | 0.00 | 88 | 1014.0 |
| 20260507135202 | 17 | 3 | 6.4 | 19.3 | 0.00 | 0.00 | 0.00 | 88 | 1014.0 |
| 20260507135102 | 17 | 54 | 8.0 | 19.3 | 0.00 | 0.00 | 0.00 | 88 | 1014.1 |
| 20260507135001 | 17 | 0 | 9.7 | 24.1 | 0.00 | 0.00 | 0.00 | 88 | 1014.1 |
| 20260507134901 | 17 | 1 | 9.7 | 24.1 | 0.00 | 0.00 | 0.00 | 88 | 1014.0 |
| 20260507134804 | 17 | 6 | 9.7 | 24.1 | 0.00 | 0.00 | 0.00 | 88 | 1014.1 |
| 20260507134702 | 17 | 3 | 9.7 | 24.1 | 0.00 | 0.00 | 0.00 | 88 | 1014.1 |
| 20260507134602 | 17 | 1 | 8.0 | 24.1 | 0.00 | 0.00 | 0.00 | 88 | 1014.1 |
| 20260507134504 | 17 | 0 | 9.7 | 24.1 | 0.00 | 0.00 | 0.00 | 89 | 1014.1 |
| 20260507134404 | 17 | 0 | 11.3 | 24.1 | 0.00 | 0.00 | 0.00 | 88 | 1014.2 |
| 20260507134302 | 17 | 0 | 12.9 | 24.1 | 0.00 | 0.00 | 0.00 | 88 | 1014.1 |
| 20260507134202 | 17 | 0 | 12.9 | 24.1 | 0.00 | 0.00 | 0.00 | 88 | 1014.3 |
| 20260507134102 | 17 | 1 | 14.5 | 24.1 | 0.00 | 0.00 | 0.00 | 88 | 1014.3 |
| 20260507134003 | 17 | 55 | 12.9 | 24.1 | 0.00 | 0.00 | 0.00 | 88 | 1014.3 |
| 20260507133903 | 17 | 3 | 12.9 | 24.1 | 0.00 | 0.00 | 0.00 | 88 | 1014.2 |
| 20260507133804 | 17 | 3 | 14.5 | 24.1 | 0.00 | 0.00 | 0.00 | 88 | 1014.3 |
| 20260507133702 | 17 | 0 | 14.5 | 24.1 | 0.00 | 0.00 | 0.00 | 88 | 1014.3 |
| 20260507133603 | 17 | 0 | 8.0 | 24.1 | 0.00 | 0.00 | 0.00 | 88 | 1014.2 |
| 20260507133502 | 17 | 1 | 6.4 | 24.1 | 0.00 | 0.00 | 0.00 | 88 | 1014.2 |
| 20260507133404 | 17 | 0 | 8.0 | 24.1 | 0.00 | 0.00 | 0.00 | 89 | 1014.2 |
| 20260507133302 | 17 | 0 | 8.0 | 24.1 | 0.00 | 0.00 | 0.00 | 89 | 1014.1 |
| 20260507133202 | 17 | 4 | 9.7 | 24.1 | 0.00 | 0.00 | 0.00 | 89 | 1014.1 |
| 20260507133102 | 17 | 1 | 12.9 | 24.1 | 0.00 | 0.00 | 0.00 | 88 | 1014.1 |
| 20260507133003 | 17 | 3 | 11.3 | 24.1 | 0.00 | 0.00 | 0.00 | 89 | 1014.0 |
| 20260507132901 | 17 | 0 | 11.3 | 24.1 | 0.00 | 0.00 | 0.00 | 89 | 1014.1 |
| 20260507132802 | 17 | 0 | 14.5 | 24.1 | 0.00 | 0.00 | 0.00 | 89 | 1014.1 |
| 20260507132703 | 17 | 4 | 14.5 | 24.1 | 0.00 | 0.00 | 0.00 | 89 | 1014.2 |
| 20260507132602 | 17 | 6 | 12.9 | 20.9 | 0.00 | 0.00 | 0.00 | 89 | 1014.2 |
| 20260507132502 | 17 | 3 | 12.9 | 20.9 | 0.00 | 0.00 | 0.00 | 89 | 1014.2 |
| 20260507132403 | 17 | 8 | 12.9 | 20.9 | 0.00 | 0.00 | 0.00 | 88 | 1014.3 |
| 20260507132306 | 17 | 7 | 11.3 | 20.9 | 0.00 | 0.00 | 0.00 | 89 | 1014.3 |
| 20260507132203 | 17 | 1 | 8.0 | 20.9 | 0.00 | 0.00 | 0.00 | 89 | 1014.4 |
| 20260507132104 | 17 | 0 | 8.0 | 20.9 | 0.00 | 0.00 | 0.00 | 89 | 1014.4 |
| 20260507132003 | 17 | 0 | 11.3 | 20.9 | 0.00 | 0.00 | 0.00 | 89 | 1014.5 |
| 20260507131903 | 17 | 4 | 12.9 | 20.9 | 0.00 | 0.00 | 0.00 | 89 | 1014.4 |
| 20260507131803 | 17 | 0 | 11.3 | 17.7 | 0.00 | 0.00 | 0.00 | 89 | 1014.5 |
| 20260507131704 | 17 | 0 | 11.3 | 17.7 | 0.00 | 0.00 | 0.00 | 89 | 1014.5 |
| 20260507131606 | 17 | 0 | 9.7 | 16.1 | 0.00 | 0.00 | 0.00 | 89 | 1014.4 |
| 20260507131503 | 17 | 0 | 6.4 | 17.7 | 0.00 | 0.00 | 0.00 | 89 | 1014.3 |
| 20260507131403 | 17 | 0 | 4.8 | 17.7 | 0.00 | 0.00 | 0.00 | 89 | 1014.2 |
| 20260507131302 | 17 | 4 | 6.4 | 20.9 | 0.00 | 0.00 | 0.00 | 89 | 1014.3 |
| 20260507131203 | 17 | 1 | 6.4 | 20.9 | 0.00 | 0.00 | 0.00 | 89 | 1014.2 |
| 20260507131103 | 17 | 0 | 6.4 | 20.9 | 0.00 | 0.00 | 0.00 | 89 | 1014.2 |
| 20260507131004 | 17 | 4 | 6.4 | 20.9 | 0.00 | 0.00 | 0.00 | 89 | 1014.2 |
| 20260507130902 | 17 | 52 | 8.0 | 20.9 | 0.00 | 0.00 | 0.00 | 89 | 1014.3 |
| 20260507130802 | 17 | 0 | 9.7 | 20.9 | 0.00 | 0.00 | 0.00 | 89 | 1014.2 |
| 20260507130704 | 17 | 52 | 11.3 | 22.5 | 0.00 | 0.00 | 0.00 | 89 | 1014.2 |
| 20260507130602 | 17 | 52 | 12.9 | 22.5 | 0.00 | 0.00 | 0.00 | 89 | 1014.3 |
| 20260507130504 | 17 | 0 | 12.9 | 22.5 | 0.00 | 0.00 | 0.00 | 89 | 1014.1 |
| 20260507130403 | 17 | 0 | 11.3 | 22.5 | 0.00 | 0.00 | 0.00 | 89 | 1014.2 |
| 20260507130303 | 17 | 1 | 11.3 | 22.5 | 0.00 | 0.00 | 0.00 | 89 | 1014.2 |
| 20260507130202 | 17 | 4 | 12.9 | 22.5 | 0.00 | 0.00 | 0.00 | 89 | 1014.2 |
| 20260507130103 | 17 | 3 | 11.3 | 22.5 | 0.00 | 0.00 | 0.00 | 89 | 1014.3 |
| 20260507125955 | 17 | 0 | 9.7 | 22.5 | 0.00 | 0.00 | 0.00 | 88 | 1014.3 |
| 20260507125851 | 17 | 0 | 11.3 | 22.5 | 0.00 | 0.00 | 0.00 | 88 | 1014.3 |
| 20260507125750 | 17 | 49 | 11.3 | 22.5 | 0.00 | 0.00 | 0.00 | 89 | 1014.3 |
| 20260507125648 | 17 | 51 | 11.3 | 22.5 | 0.00 | 0.00 | 0.00 | 88 | 1014.3 |
| 20260507125545 | 17 | 4 | 8.0 | 22.5 | 0.00 | 0.00 | 0.00 | 88 | 1014.3 |
| 20260507125445 | 17 | 49 | 6.4 | 22.5 | 0.00 | 0.00 | 0.00 | 89 | 1014.3 |
| 20260507125344 | 17 | 1 | 6.4 | 22.5 | 0.00 | 0.00 | 0.00 | 89 | 1014.2 |
| 20260507125242 | 17 | 48 | 9.7 | 22.5 | 0.00 | 0.00 | 0.00 | 89 | 1014.1 |
| 20260507125140 | 17 | 49 | 11.3 | 22.5 | 0.00 | 0.00 | 0.00 | 88 | 1014.0 |
| 20260507125038 | 17 | 51 | 11.3 | 22.5 | 0.00 | 0.00 | 0.00 | 88 | 1013.9 |
| 20260507124939 | 17 | 3 | 12.9 | 22.5 | 0.00 | 0.00 | 0.00 | 88 | 1013.8 |
| 20260507124837 | 17 | 3 | 14.5 | 22.5 | 0.00 | 0.00 | 0.00 | 88 | 1013.7 |
| 20260507124735 | 17 | 0 | 12.9 | 20.9 | 0.00 | 0.00 | 0.00 | 89 | 1013.7 |
| 20260507124632 | 17 | 51 | 11.3 | 20.9 | 0.00 | 0.00 | 0.00 | 89 | 1013.6 |
| 20260507124532 | 17 | 49 | 8.0 | 17.7 | 0.00 | 0.00 | 0.00 | 89 | 1013.6 |
| 20260507124431 | 17 | 51 | 8.0 | 17.7 | 0.00 | 0.00 | 0.00 | 89 | 1013.5 |
| 20260507124332 | 17 | 49 | 8.0 | 17.7 | 0.00 | 0.00 | 0.00 | 89 | 1013.6 |
| 20260507124232 | 17 | 1 | 6.4 | 17.7 | 0.00 | 0.00 | 0.00 | 89 | 1013.5 |
| 20260507124131 | 17 | 51 | 8.0 | 17.7 | 0.00 | 0.00 | 0.00 | 89 | 1013.5 |
| 20260507124031 | 17 | 49 | 9.7 | 17.7 | 0.00 | 0.00 | 0.00 | 89 | 1013.6 |
| 20260507123931 | 17 | 47 | 9.7 | 19.3 | 0.00 | 0.00 | 0.00 | 89 | 1013.5 |
| 20260507123831 | 17 | 49 | 11.3 | 19.3 | 0.00 | 0.00 | 0.00 | 89 | 1013.5 |
| 20260507123731 | 17 | 51 | 11.3 | 19.3 | 0.00 | 0.00 | 0.00 | 89 | 1013.4 |
| 20260507123631 | 17 | 3 | 11.3 | 19.3 | 0.00 | 0.00 | 0.00 | 89 | 1013.5 |
| 20260507123532 | 17 | 0 | 9.7 | 19.3 | 0.00 | 0.00 | 0.00 | 89 | 1013.5 |
| 20260507123431 | 17 | 3 | 9.7 | 19.3 | 0.00 | 0.00 | 0.00 | 89 | 1013.5 |
| 20260507123326 | 17 | 0 | 9.7 | 19.3 | 0.00 | 0.00 | 0.00 | 89 | 1013.4 |
| 20260507123224 | 17 | 0 | 9.7 | 19.3 | 0.00 | 0.00 | 0.00 | 89 | 1013.5 |
| 20260507123122 | 17 | 0 | 9.7 | 19.3 | 0.00 | 0.00 | 0.00 | 89 | 1013.5 |
| 20260507123022 | 17 | 48 | 11.3 | 19.3 | 0.00 | 0.00 | 0.00 | 89 | 1013.6 |
| 20260507122918 | 17 | 48 | 11.3 | 17.7 | 0.00 | 0.00 | 0.00 | 89 | 1013.6 |
| 20260507122816 | 17 | 47 | 9.7 | 16.1 | 0.00 | 0.00 | 0.00 | 89 | 1013.6 |
| 20260507122716 | 17 | 44 | 8.0 | 16.1 | 0.00 | 0.00 | 0.00 | 89 | 1013.5 |
| 20260507122613 | 17 | 0 | 9.7 | 16.1 | 0.00 | 0.00 | 0.00 | 89 | 1013.4 |
| 20260507122511 | 17 | 48 | 9.7 | 16.1 | 0.00 | 0.00 | 0.00 | 89 | 1013.2 |
| 20260507122410 | 17 | 0 | 9.7 | 16.1 | 0.00 | 0.00 | 0.00 | 89 | 1013.2 |
| 20260507122309 | 17 | 0 | 8.0 | 16.1 | 0.00 | 0.00 | 0.00 | 89 | 1013.1 |
| 20260507122207 | 17 | 4 | 9.7 | 16.1 | 0.00 | 0.00 | 0.00 | 89 | 1013.1 |
| 20260507122107 | 17 | 3 | 12.9 | 16.1 | 0.00 | 0.00 | 0.00 | 89 | 1013.1 |
| 20260507122007 | 17 | 0 | 9.7 | 17.7 | 0.00 | 0.00 | 0.00 | 89 | 1013.1 |
| 20260507121907 | 17 | 4 | 8.0 | 20.9 | 0.00 | 0.00 | 0.00 | 89 | 1013.2 |
| 20260507121807 | 17 | 48 | 6.4 | 20.9 | 0.00 | 0.00 | 0.00 | 89 | 1013.2 |
| 20260507121706 | 17 | 0 | 6.4 | 20.9 | 0.00 | 0.00 | 0.00 | 89 | 1013.3 |
| 20260507121606 | 17 | 49 | 8.0 | 24.1 | 0.00 | 0.00 | 0.00 | 89 | 1013.3 |
| 20260507121507 | 17 | 48 | 8.0 | 24.1 | 0.00 | 0.00 | 0.00 | 89 | 1013.4 |
| 20260507121406 | 17 | 0 | 6.4 | 24.1 | 0.00 | 0.00 | 0.00 | 89 | 1013.4 |
| 20260507121308 | 17 | 0 | 6.4 | 24.1 | 0.00 | 0.00 | 0.00 | 89 | 1013.3 |
| 20260507121207 | 17 | 0 | 8.0 | 24.1 | 0.00 | 0.00 | 0.00 | 89 | 1013.3 |
| 20260507121106 | 17 | 49 | 11.3 | 24.1 | 0.00 | 0.00 | 0.00 | 89 | 1013.3 |
| 20260507121007 | 17 | 0 | 11.3 | 24.1 | 0.00 | 0.00 | 0.00 | 89 | 1013.1 |
| 20260507120908 | 17 | 1 | 12.9 | 24.1 | 0.00 | 0.00 | 0.00 | 89 | 1013.1 |
| 20260507120808 | 17 | 0 | 14.5 | 24.1 | 0.00 | 0.00 | 0.00 | 89 | 1013.0 |
| 20260507120707 | 17 | 49 | 11.3 | 24.1 | 0.00 | 0.00 | 0.00 | 89 | 1013.0 |
| 20260507120607 | 17 | 7 | 9.7 | 20.9 | 0.00 | 0.00 | 0.00 | 89 | 1013.0 |
| 20260507120508 | 17 | 6 | 11.3 | 20.9 | 0.00 | 0.00 | 0.00 | 89 | 1013.0 |
| 20260507120406 | 18 | 3 | 11.3 | 20.9 | 0.00 | 0.00 | 0.00 | 89 | 1013.0 |
| 20260507120307 | 18 | 51 | 9.7 | 20.9 | 0.00 | 0.00 | 0.00 | 89 | 1013.1 |
| 20260507120207 | 18 | 10 | 9.7 | 20.9 | 0.00 | 0.00 | 0.00 | 89 | 1013.1 |
| 20260507120108 | 18 | 3 | 8.0 | 20.9 | 0.00 | 0.00 | 0.00 | 89 | 1013.1 |
| 20260507120006 | 18 | 49 | 6.4 | 20.9 | 0.00 | 0.00 | 0.00 | 89 | 1013.1 |
| 20260507115906 | 18 | 48 | 8.0 | 20.9 | 0.00 | 0.00 | 0.00 | 89 | 1013.1 |
| 20260507115808 | 18 | 48 | 11.3 | 20.9 | 0.00 | 0.00 | 0.00 | 89 | 1013.0 |
| 20260507115707 | 18 | 48 | 11.3 | 20.9 | 0.00 | 0.00 | 0.00 | 89 | 1013.1 |
| 20260507115606 | 18 | 51 | 11.3 | 19.3 | 0.00 | 0.00 | 0.00 | 89 | 1013.1 |
| 20260507115506 | 18 | 49 | 9.7 | 19.3 | 0.00 | 0.00 | 0.00 | 89 | 1013.0 |
| 20260507115407 | 18 | 48 | 8.0 | 19.3 | 0.00 | 0.00 | 0.00 | 89 | 1012.9 |
| 20260507115307 | 18 | 0 | 8.0 | 19.3 | 0.00 | 0.00 | 0.00 | 89 | 1012.9 |
| 20260507115206 | 18 | 1 | 8.0 | 19.3 | 0.00 | 0.00 | 0.00 | 89 | 1012.8 |
| 20260507115107 | 18 | 48 | 8.0 | 19.3 | 0.00 | 0.00 | 0.00 | 89 | 1012.8 |
| 20260507115005 | 18 | 0 | 9.7 | 19.3 | 0.00 | 0.00 | 0.00 | 89 | 1012.8 |
| 20260507114906 | 18 | 0 | 11.3 | 19.3 | 0.00 | 0.00 | 0.00 | 89 | 1012.7 |
| 20260507114808 | 18 | 48 | 9.7 | 19.3 | 0.00 | 0.00 | 0.00 | 89 | 1012.7 |
| 20260507114706 | 18 | 1 | 6.4 | 20.9 | 0.00 | 0.00 | 0.00 | 89 | 1012.7 |
| 20260507114606 | 18 | 51 | 6.4 | 20.9 | 0.00 | 0.00 | 0.00 | 89 | 1012.7 |
| 20260507114505 | 18 | 0 | 6.4 | 20.9 | 0.00 | 0.00 | 0.00 | 89 | 1012.5 |
| 20260507114408 | 18 | 0 | 9.7 | 20.9 | 0.00 | 0.00 | 0.00 | 89 | 1012.5 |
| 20260507114306 | 18 | 1 | 9.7 | 20.9 | 0.00 | 0.00 | 0.00 | 89 | 1012.4 |
| 20260507114205 | 18 | 3 | 9.7 | 20.9 | 0.00 | 0.00 | 0.00 | 89 | 1012.5 |
| 20260507114107 | 18 | 1 | 8.0 | 20.9 | 0.00 | 0.00 | 0.00 | 89 | 1012.5 |
| 20260507114007 | 18 | 49 | 9.7 | 20.9 | 0.00 | 0.00 | 0.00 | 89 | 1012.6 |
| 20260507113905 | 18 | 52 | 11.3 | 20.9 | 0.00 | 0.00 | 0.00 | 89 | 1012.6 |
| 20260507113805 | 18 | 1 | 12.9 | 20.9 | 0.00 | 0.00 | 0.00 | 89 | 1012.4 |
| 20260507113706 | 18 | 4 | 9.7 | 16.1 | 0.00 | 0.00 | 0.00 | 89 | 1012.4 |
| 20260507113605 | 18 | 3 | 8.0 | 16.1 | 0.00 | 0.00 | 0.00 | 89 | 1012.3 |
| 20260507113505 | 18 | 0 | 8.0 | 17.7 | 0.00 | 0.00 | 0.00 | 89 | 1012.3 |
| 20260507113405 | 18 | 1 | 8.0 | 17.7 | 0.00 | 0.00 | 0.00 | 89 | 1012.3 |
| 20260507113306 | 18 | 0 | 6.4 | 17.7 | 0.00 | 0.00 | 0.00 | 89 | 1012.4 |
| 20260507113205 | 18 | 0 | 4.8 | 17.7 | 0.00 | 0.00 | 0.00 | 89 | 1012.4 |
| 20260507113105 | 18 | 4 | 6.4 | 17.7 | 0.00 | 0.00 | 0.00 | 89 | 1012.3 |
| 20260507113006 | 18 | 3 | 9.7 | 17.7 | 0.00 | 0.00 | 0.00 | 89 | 1012.4 |
| 20260507112905 | 18 | 1 | 9.7 | 17.7 | 0.00 | 0.00 | 0.00 | 89 | 1012.4 |
| 20260507112806 | 18 | 1 | 8.0 | 17.7 | 0.00 | 0.00 | 0.00 | 89 | 1012.4 |
| 20260507112705 | 18 | 51 | 9.7 | 17.7 | 0.00 | 0.00 | 0.00 | 89 | 1012.4 |
| 20260507112605 | 18 | 0 | 11.3 | 17.7 | 0.00 | 0.00 | 0.00 | 89 | 1012.4 |
| 20260507112505 | 18 | 3 | 9.7 | 17.7 | 0.00 | 0.00 | 0.00 | 89 | 1012.3 |
| 20260507112405 | 18 | 47 | 8.0 | 16.1 | 0.00 | 0.00 | 0.00 | 89 | 1012.2 |
| 20260507112308 | 18 | 4 | 8.0 | 14.5 | 0.00 | 0.00 | 0.00 | 90 | 1012.2 |
| 20260507112206 | 18 | 0 | 8.0 | 14.5 | 0.00 | 0.00 | 0.00 | 90 | 1012.1 |
| 20260507112106 | 18 | 0 | 6.4 | 14.5 | 0.00 | 0.00 | 0.00 | 90 | 1012.0 |
| 20260507112006 | 18 | 51 | 6.4 | 14.5 | 0.00 | 0.00 | 0.00 | 90 | 1012.1 |
| 20260507111905 | 18 | 0 | 6.4 | 14.5 | 0.00 | 0.00 | 0.00 | 90 | 1012.1 |
| 20260507111805 | 18 | 0 | 6.4 | 14.5 | 0.00 | 0.00 | 0.00 | 90 | 1012.2 |
| 20260507111705 | 18 | 0 | 6.4 | 14.5 | 0.00 | 0.00 | 0.00 | 90 | 1012.2 |
| 20260507111606 | 18 | 0 | 6.4 | 14.5 | 0.00 | 0.00 | 0.00 | 90 | 1012.2 |
| 20260507111506 | 18 | 0 | 6.4 | 14.5 | 0.00 | 0.00 | 0.00 | 90 | 1012.2 |
| 20260507111405 | 18 | 1 | 8.0 | 14.5 | 0.00 | 0.00 | 0.00 | 90 | 1012.1 |
| 20260507111306 | 18 | 1 | 8.0 | 14.5 | 0.00 | 0.00 | 0.00 | 90 | 1012.1 |
| 20260507111205 | 18 | 3 | 6.4 | 14.5 | 0.00 | 0.00 | 0.00 | 90 | 1012.0 |
| 20260507111105 | 18 | 0 | 6.4 | 11.3 | 0.00 | 0.00 | 0.00 | 90 | 1012.0 |
| 20260507111004 | 18 | 3 | 8.0 | 11.3 | 0.00 | 0.00 | 0.00 | 90 | 1011.9 |
| 20260507110906 | 18 | 4 | 6.4 | 11.3 | 0.00 | 0.00 | 0.00 | 90 | 1011.8 |
| 20260507110805 | 18 | 3 | 4.8 | 8.0 | 0.00 | 0.00 | 0.00 | 90 | 1011.8 |
| 20260507110705 | 18 | 6 | 4.8 | 8.0 | 0.00 | 0.00 | 0.00 | 90 | 1011.9 |
| 20260507110606 | 18 | 49 | 4.8 | 8.0 | 0.00 | 0.00 | 0.00 | 90 | 1011.9 |
| 20260507110504 | 18 | 4 | 6.4 | 8.0 | 0.00 | 0.00 | 0.00 | 90 | 1011.9 |
| 20260507110406 | 18 | 3 | 4.8 | 8.0 | 0.00 | 0.00 | 0.00 | 90 | 1012.0 |
| 20260507110306 | 18 | 0 | 3.2 | 8.0 | 0.00 | 0.00 | 0.00 | 90 | 1012.0 |
| 20260507110207 | 18 | 52 | 3.2 | 8.0 | 0.00 | 0.00 | 0.00 | 90 | 1012.0 |
| 20260507110105 | 18 | 0 | 3.2 | 8.0 | 0.00 | 0.00 | 0.00 | 90 | 1011.9 |
| 20260507110005 | 18 | 3 | 4.8 | 8.0 | 0.00 | 0.00 | 0.00 | 90 | 1011.9 |
| 20260507105905 | 18 | 1 | 4.8 | 8.0 | 0.00 | 0.00 | 0.00 | 90 | 1011.9 |
| 20260507105805 | 18 | 1 | 4.8 | 8.0 | 0.00 | 0.00 | 0.00 | 90 | 1011.9 |
| 20260507105705 | 18 | 1 | 4.8 | 8.0 | 0.00 | 0.00 | 0.00 | 90 | 1011.9 |
| 20260507105607 | 18 | 1 | 4.8 | 8.0 | 0.00 | 0.00 | 0.00 | 90 | 1012.0 |
| 20260507105506 | 18 | 4 | 4.8 | 8.0 | 0.00 | 0.00 | 0.00 | 90 | 1011.9 |
| 20260507105405 | 18 | 6 | 3.2 | 8.0 | 0.00 | 0.00 | 0.00 | 90 | 1012.0 |
| 20260507105306 | 18 | 3 | 1.6 | 8.0 | 0.00 | 0.00 | 0.00 | 90 | 1011.9 |
| 20260507105205 | 18 | 3 | 3.2 | 8.0 | 0.00 | 0.00 | 0.00 | 90 | 1012.0 |
| 20260507105104 | 18 | 3 | 3.2 | 8.0 | 0.00 | 0.00 | 0.00 | 90 | 1012.0 |
| 20260507105005 | 18 | 3 | 4.8 | 8.0 | 0.00 | 0.00 | 0.00 | 90 | 1011.9 |
| 20260507104905 | 18 | 3 | 4.8 | 9.7 | 0.00 | 0.00 | 0.00 | 90 | 1011.8 |
| 20260507104805 | 18 | 3 | 3.2 | 11.3 | 0.00 | 0.00 | 0.00 | 90 | 1011.8 |
| 20260507104704 | 18 | 4 | 4.8 | 11.3 | 0.00 | 0.00 | 0.00 | 90 | 1011.8 |
| 20260507104605 | 18 | 4 | 4.8 | 11.3 | 0.00 | 0.00 | 0.00 | 90 | 1011.9 |
| 20260507104506 | 18 | 0 | 3.2 | 11.3 | 0.00 | 0.00 | 0.00 | 90 | 1011.9 |
| 20260507104405 | 18 | 0 | 4.8 | 11.3 | 0.00 | 0.00 | 0.00 | 90 | 1012.0 |
| 20260507104306 | 18 | 6 | 6.4 | 11.3 | 0.00 | 0.00 | 0.00 | 90 | 1012.0 |
| 20260507104205 | 18 | 1 | 4.8 | 14.5 | 0.00 | 0.00 | 0.00 | 90 | 1012.0 |
| 20260507104105 | 18 | 51 | 4.8 | 14.5 | 0.00 | 0.00 | 0.00 | 90 | 1012.0 |
| 20260507104005 | 18 | 3 | 6.4 | 14.5 | 0.00 | 0.00 | 0.00 | 90 | 1011.8 |
| 20260507103904 | 18 | 1 | 8.0 | 14.5 | 0.00 | 0.00 | 0.00 | 90 | 1011.8 |
| 20260507103805 | 18 | 0 | 6.4 | 14.5 | 0.00 | 0.00 | 0.00 | 90 | 1011.7 |
| 20260507103704 | 18 | 0 | 6.4 | 14.5 | 0.00 | 0.00 | 0.00 | 90 | 1011.7 |
| 20260507103604 | 18 | 0 | 4.8 | 14.5 | 0.00 | 0.00 | 0.00 | 90 | 1011.6 |
| 20260507103505 | 18 | 1 | 4.8 | 14.5 | 0.00 | 0.00 | 0.00 | 90 | 1011.6 |
| 20260507103404 | 18 | 1 | 6.4 | 14.5 | 0.00 | 0.00 | 0.00 | 90 | 1011.6 |
| 20260507103305 | 18 | 1 | 8.0 | 14.5 | 0.00 | 0.00 | 0.00 | 90 | 1011.7 |
| 20260507103205 | 18 | 0 | 8.0 | 11.3 | 0.00 | 0.00 | 0.00 | 90 | 1011.8 |
| 20260507103105 | 18 | 49 | 6.4 | 11.3 | 0.00 | 0.00 | 0.00 | 90 | 1011.7 |
| 20260507103004 | 18 | 0 | 6.4 | 11.3 | 0.00 | 0.00 | 0.00 | 90 | 1011.7 |
| 20260507102904 | 18 | 0 | 6.4 | 11.3 | 0.00 | 0.00 | 0.00 | 90 | 1011.7 |
| 20260507102805 | 18 | 51 | 3.2 | 11.3 | 0.00 | 0.00 | 0.00 | 90 | 1011.8 |
| 20260507102704 | 18 | 51 | 3.2 | 11.3 | 0.00 | 0.00 | 0.00 | 90 | 1011.8 |
| 20260507102604 | 18 | 0 | 6.4 | 11.3 | 0.00 | 0.00 | 0.00 | 90 | 1011.7 |
| 20260507102504 | 18 | 51 | 4.8 | 11.3 | 0.00 | 0.00 | 0.00 | 90 | 1011.6 |
| 20260507102404 | 18 | 0 | 4.8 | 14.5 | 0.00 | 0.00 | 0.00 | 90 | 1011.5 |
| 20260507102306 | 18 | 0 | 6.4 | 14.5 | 0.00 | 0.00 | 0.00 | 90 | 1011.5 |
| 20260507102203 | 18 | 4 | 6.4 | 16.1 | 0.00 | 0.00 | 0.00 | 90 | 1011.4 |
| 20260507102105 | 18 | 1 | 6.4 | 16.1 | 0.00 | 0.00 | 0.00 | 90 | 1011.5 |
| 20260507102007 | 18 | 4 | 6.4 | 16.1 | 0.00 | 0.00 | 0.00 | 90 | 1011.5 |
| 20260507101904 | 18 | 4 | 6.4 | 16.1 | 0.00 | 0.00 | 0.00 | 90 | 1011.6 |
| 20260507101805 | 18 | 0 | 6.4 | 16.1 | 0.00 | 0.00 | 0.00 | 90 | 1011.7 |
| 20260507101706 | 18 | 1 | 6.4 | 16.1 | 0.00 | 0.00 | 0.00 | 90 | 1011.7 |
| 20260507101604 | 18 | 0 | 8.0 | 16.1 | 0.00 | 0.00 | 0.00 | 90 | 1011.7 |
| 20260507101503 | 18 | 0 | 8.0 | 16.1 | 0.00 | 0.00 | 0.00 | 90 | 1011.7 |
| 20260507101404 | 18 | 0 | 8.0 | 16.1 | 0.00 | 0.00 | 0.00 | 90 | 1011.7 |
| 20260507101304 | 18 | 0 | 8.0 | 16.1 | 0.00 | 0.00 | 0.00 | 90 | 1011.7 |
| 20260507101206 | 18 | 0 | 6.4 | 14.5 | 0.00 | 0.00 | 0.00 | 90 | 1011.6 |
| 20260507101106 | 18 | 3 | 4.8 | 16.1 | 0.00 | 0.00 | 0.00 | 90 | 1011.7 |
| 20260507101005 | 18 | 0 | 4.8 | 16.1 | 0.00 | 0.00 | 0.00 | 90 | 1011.6 |
| 20260507100904 | 18 | 51 | 4.8 | 16.1 | 0.00 | 0.00 | 0.00 | 90 | 1011.6 |
| 20260507100804 | 18 | 51 | 4.8 | 16.1 | 0.00 | 0.00 | 0.00 | 90 | 1011.7 |
| 20260507100704 | 18 | 0 | 6.4 | 16.1 | 0.00 | 0.00 | 0.00 | 90 | 1011.7 |
| 20260507100603 | 18 | 1 | 8.0 | 17.7 | 0.00 | 0.00 | 0.00 | 90 | 1011.7 |
| 20260507100503 | 18 | 48 | 6.4 | 22.5 | 0.00 | 0.00 | 0.00 | 90 | 1011.6 |
| 20260507100403 | 18 | 0 | 6.4 | 22.5 | 0.00 | 0.00 | 0.00 | 90 | 1011.5 |
| 20260507100303 | 18 | 0 | 8.0 | 22.5 | 0.00 | 0.00 | 0.00 | 90 | 1011.5 |
| 20260507100203 | 18 | 0 | 8.0 | 22.5 | 0.00 | 0.00 | 0.00 | 90 | 1011.5 |
| 20260507100103 | 18 | 48 | 8.0 | 22.5 | 0.00 | 0.00 | 0.00 | 90 | 1011.5 |
| 20260507100004 | 18 | 0 | 8.0 | 22.5 | 0.00 | 0.00 | 0.00 | 90 | 1011.4 |
| 20260507095903 | 18 | 0 | 8.0 | 22.5 | 0.00 | 0.00 | 0.00 | 90 | 1011.4 |
| 20260507095803 | 18 | 0 | 9.7 | 22.5 | 0.00 | 0.00 | 0.00 | 90 | 1011.4 |
| 20260507095703 | 18 | 0 | 12.9 | 22.5 | 0.00 | 0.00 | 0.00 | 90 | 1011.5 |
| 20260507095603 | 18 | 7 | 12.9 | 22.5 | 0.00 | 0.00 | 0.00 | 90 | 1011.4 |
| 20260507095503 | 18 | 7 | 9.7 | 20.9 | 0.00 | 0.00 | 0.00 | 90 | 1011.4 |
| 20260507095403 | 18 | 0 | 8.0 | 16.1 | 0.00 | 0.00 | 0.00 | 90 | 1011.3 |
| 20260507095306 | 18 | 7 | 6.4 | 16.1 | 0.00 | 0.00 | 0.00 | 90 | 1011.4 |
| 20260507095203 | 18 | 1 | 8.0 | 16.1 | 0.00 | 0.00 | 0.00 | 90 | 1011.4 |
| 20260507095104 | 18 | 6 | 6.4 | 16.1 | 0.00 | 0.00 | 0.00 | 90 | 1011.3 |
| 20260507095004 | 18 | 6 | 6.4 | 16.1 | 0.00 | 0.00 | 0.00 | 90 | 1011.3 |
| 20260507094903 | 18 | 8 | 6.4 | 19.3 | 0.00 | 0.00 | 0.00 | 90 | 1011.3 |
| 20260507094803 | 18 | 3 | 4.8 | 19.3 | 0.00 | 0.00 | 0.00 | 90 | 1011.3 |
| 20260507094703 | 18 | 0 | 4.8 | 19.3 | 0.00 | 0.00 | 0.00 | 90 | 1011.3 |
| 20260507094604 | 18 | 0 | 6.4 | 19.3 | 0.00 | 0.00 | 0.00 | 90 | 1011.3 |
| 20260507094505 | 18 | 1 | 9.7 | 19.3 | 0.00 | 0.00 | 0.00 | 90 | 1011.2 |
| 20260507094403 | 18 | 1 | 9.7 | 19.3 | 0.00 | 0.00 | 0.00 | 90 | 1011.1 |
| 20260507094304 | 18 | 1 | 8.0 | 19.3 | 0.00 | 0.00 | 0.00 | 90 | 1011.0 |
| 20260507094203 | 18 | 7 | 8.0 | 19.3 | 0.00 | 0.00 | 0.00 | 90 | 1011.0 |
| 20260507094103 | 18 | 0 | 11.3 | 19.3 | 0.00 | 0.00 | 0.00 | 90 | 1010.9 |
| 20260507094001 | 18 | 6 | 9.7 | 19.3 | 0.00 | 0.00 | 0.00 | 90 | 1011.0 |
| 20260507093901 | 18 | 1 | 8.0 | 17.7 | 0.00 | 0.00 | 0.00 | 90 | 1011.0 |
| 20260507093758 | 18 | 4 | 9.7 | 17.7 | 0.00 | 0.00 | 0.00 | 90 | 1011.0 |
| 20260507093657 | 18 | 3 | 9.7 | 17.7 | 0.00 | 0.00 | 0.00 | 90 | 1011.0 |
| 20260507093556 | 18 | 8 | 8.0 | 17.7 | 0.00 | 0.00 | 0.00 | 90 | 1011.1 |
| 20260507093455 | 18 | 7 | 8.0 | 17.7 | 0.00 | 0.00 | 0.00 | 90 | 1011.1 |
| 20260507093352 | 18 | 4 | 8.0 | 17.7 | 0.00 | 0.00 | 0.00 | 90 | 1011.1 |
| 20260507093251 | 18 | 7 | 9.7 | 17.7 | 0.00 | 0.00 | 0.00 | 89 | 1011.1 |
| 20260507093149 | 18 | 3 | 11.3 | 17.7 | 0.00 | 0.00 | 0.00 | 89 | 1011.0 |
| 20260507093048 | 18 | 6 | 8.0 | 17.7 | 0.00 | 0.00 | 0.00 | 89 | 1010.9 |
| 20260507092946 | 18 | 3 | 8.0 | 17.7 | 0.00 | 0.00 | 0.00 | 89 | 1011.1 |
| 20260507092846 | 18 | 4 | 9.7 | 17.7 | 0.00 | 0.00 | 0.00 | 89 | 1011.1 |
| 20260507092743 | 18 | 7 | 11.3 | 17.7 | 0.00 | 0.00 | 0.00 | 89 | 1011.1 |
| 20260507092642 | 18 | 3 | 9.7 | 17.7 | 0.00 | 0.00 | 0.00 | 89 | 1011.1 |
| 20260507092542 | 18 | 3 | 8.0 | 17.7 | 0.00 | 0.00 | 0.00 | 89 | 1011.1 |
| 20260507092439 | 18 | 1 | 6.4 | 17.7 | 0.00 | 0.00 | 0.00 | 89 | 1011.2 |
| 20260507092336 | 18 | 47 | 8.0 | 17.7 | 0.00 | 0.00 | 0.00 | 89 | 1011.2 |
| 20260507092235 | 18 | 3 | 9.7 | 17.7 | 0.00 | 0.00 | 0.00 | 89 | 1011.2 |
| 20260507092133 | 18 | 48 | 8.0 | 17.7 | 0.00 | 0.00 | 0.00 | 89 | 1011.3 |
| 20260507092032 | 18 | 0 | 6.4 | 17.7 | 0.00 | 0.00 | 0.00 | 89 | 1011.3 |
| 20260507091930 | 18 | 0 | 8.0 | 17.7 | 0.00 | 0.00 | 0.00 | 89 | 1011.2 |
| 20260507091829 | 18 | 3 | 8.0 | 17.7 | 0.00 | 0.00 | 0.00 | 89 | 1011.1 |
| 20260507091727 | 18 | 4 | 8.0 | 17.7 | 0.00 | 0.00 | 0.00 | 89 | 1011.1 |
| 20260507091626 | 18 | 1 | 11.3 | 22.5 | 0.00 | 0.00 | 0.00 | 89 | 1011.0 |
| 20260507091523 | 18 | 0 | 11.3 | 22.5 | 0.00 | 0.00 | 0.00 | 89 | 1011.1 |
| 20260507091422 | 18 | 3 | 9.7 | 22.5 | 0.00 | 0.00 | 0.00 | 89 | 1011.0 |
| 20260507091321 | 18 | 49 | 9.7 | 22.5 | 0.00 | 0.00 | 0.00 | 89 | 1011.1 |
| 20260507091220 | 18 | 1 | 9.7 | 22.5 | 0.00 | 0.00 | 0.00 | 89 | 1011.0 |
| 20260507091117 | 18 | 1 | 8.0 | 22.5 | 0.00 | 0.00 | 0.00 | 89 | 1011.1 |
| 20260507091018 | 18 | 48 | 9.7 | 22.5 | 0.00 | 0.00 | 0.00 | 89 | 1011.2 |
| 20260507090915 | 18 | 47 | 9.7 | 22.5 | 0.00 | 0.00 | 0.00 | 89 | 1011.2 |
| 20260507090815 | 18 | 1 | 11.3 | 22.5 | 0.00 | 0.00 | 0.00 | 89 | 1011.3 |
| 20260507090712 | 19 | 1 | 11.3 | 22.5 | 0.00 | 0.00 | 0.00 | 89 | 1011.2 |
| 20260507090610 | 19 | 49 | 9.7 | 19.3 | 0.00 | 0.00 | 0.00 | 89 | 1011.2 |
| 20260507090505 | 19 | 48 | 9.7 | 19.3 | 0.00 | 0.00 | 0.00 | 89 | 1011.3 |
| 20260507090404 | 19 | 0 | 8.0 | 19.3 | 0.00 | 0.00 | 0.00 | 89 | 1011.3 |
| 20260507090303 | 19 | 49 | 9.7 | 19.3 | 0.00 | 0.00 | 0.00 | 89 | 1011.4 |
| 20260507090203 | 19 | 0 | 9.7 | 19.3 | 0.00 | 0.00 | 0.00 | 89 | 1011.3 |
| 20260507090105 | 19 | 4 | 8.0 | 14.5 | 0.00 | 0.00 | 0.00 | 88 | 1011.3 |
| 20260507090004 | 19 | 48 | 8.0 | 11.3 | 0.00 | 0.00 | 0.00 | 88 | 1011.2 |
| 20260507085903 | 19 | 3 | 8.0 | 16.1 | 0.00 | 0.00 | 0.00 | 88 | 1011.2 |
| 20260507085803 | 19 | 48 | 6.4 | 16.1 | 0.00 | 0.00 | 0.00 | 89 | 1011.2 |
| 20260507085702 | 19 | 1 | 8.0 | 20.9 | 0.00 | 0.00 | 0.00 | 88 | 1011.2 |
| 20260507085602 | 19 | 48 | 9.7 | 20.9 | 0.00 | 0.00 | 0.00 | 88 | 1011.2 |
| 20260507085503 | 19 | 1 | 9.7 | 20.9 | 0.00 | 0.00 | 0.00 | 88 | 1011.3 |
| 20260507085404 | 19 | 47 | 8.0 | 20.9 | 0.00 | 0.00 | 0.00 | 88 | 1011.4 |
| 20260507085306 | 19 | 49 | 11.3 | 20.9 | 0.00 | 0.00 | 0.00 | 88 | 1011.5 |
| 20260507085202 | 19 | 49 | 11.3 | 20.9 | 0.00 | 0.00 | 0.00 | 88 | 1011.5 |
| 20260507085032 | 19 | 49 | 11.3 | 20.9 | 0.00 | 0.00 | 0.00 | 88 | 1011.3 |
| 20260507084932 | 19 | 49 | 11.3 | 20.9 | 0.00 | 0.00 | 0.00 | 88 | 1011.3 |
| 20260507084830 | 19 | 49 | 12.9 | 20.9 | 0.00 | 0.00 | 0.00 | 88 | 1011.2 |
| 20260507084728 | 19 | 4 | 12.9 | 22.5 | 0.00 | 0.00 | 0.00 | 88 | 1011.2 |
| 20260507084627 | 19 | 51 | 12.9 | 22.5 | 0.00 | 0.00 | 0.00 | 88 | 1011.2 |
| 20260507084525 | 19 | 4 | 11.3 | 25.7 | 0.00 | 0.00 | 0.00 | 88 | 1011.3 |
| 20260507084424 | 19 | 0 | 9.7 | 25.7 | 0.00 | 0.00 | 0.00 | 88 | 1011.3 |
| 20260507084322 | 19 | 49 | 9.7 | 25.7 | 0.00 | 0.00 | 0.00 | 88 | 1011.4 |
| 20260507084220 | 19 | 0 | 11.3 | 25.7 | 0.00 | 0.00 | 0.00 | 88 | 1011.4 |
| 20260507084119 | 19 | 0 | 11.3 | 25.7 | 0.00 | 0.00 | 0.00 | 88 | 1011.3 |
| 20260507084018 | 19 | 6 | 11.3 | 25.7 | 0.00 | 0.00 | 0.00 | 88 | 1011.3 |
| 20260507083916 | 19 | 0 | 12.9 | 25.7 | 0.00 | 0.00 | 0.00 | 88 | 1011.3 |
| 20260507083814 | 19 | 0 | 14.5 | 25.7 | 0.00 | 0.00 | 0.00 | 88 | 1011.3 |
| 20260507083713 | 19 | 0 | 16.1 | 25.7 | 0.00 | 0.00 | 0.00 | 88 | 1011.3 |
| 20260507083612 | 19 | 0 | 14.5 | 22.5 | 0.00 | 0.00 | 0.00 | 88 | 1011.3 |
| 20260507083507 | 19 | 1 | 9.7 | 22.5 | 0.00 | 0.00 | 0.00 | 88 | 1011.2 |
| 20260507083408 | 19 | 1 | 9.7 | 22.5 | 0.00 | 0.00 | 0.00 | 88 | 1011.2 |
| 20260507083308 | 19 | 0 | 12.9 | 22.5 | 0.00 | 0.00 | 0.00 | 88 | 1011.1 |
| 20260507083205 | 19 | 0 | 12.9 | 22.5 | 0.00 | 0.00 | 0.00 | 88 | 1011.0 |
| 20260507083103 | 19 | 4 | 12.9 | 22.5 | 0.00 | 0.00 | 0.00 | 88 | 1011.0 |
| 20260507083004 | 19 | 0 | 14.5 | 22.5 | 0.00 | 0.00 | 0.00 | 88 | 1011.0 |
| 20260507082902 | 19 | 1 | 12.9 | 22.5 | 0.00 | 0.00 | 0.00 | 88 | 1011.0 |
| 20260507082804 | 19 | 1 | 9.7 | 22.5 | 0.00 | 0.00 | 0.00 | 88 | 1011.0 |
| 20260507082703 | 19 | 4 | 8.0 | 17.7 | 0.00 | 0.00 | 0.00 | 88 | 1011.0 |
| 20260507082602 | 19 | 6 | 8.0 | 17.7 | 0.00 | 0.00 | 0.00 | 88 | 1011.2 |
| 20260507082503 | 19 | 0 | 9.7 | 17.7 | 0.00 | 0.00 | 0.00 | 88 | 1011.2 |
| 20260507082402 | 19 | 1 | 9.7 | 17.7 | 0.00 | 0.00 | 0.00 | 88 | 1011.2 |
| 20260507082306 | 19 | 0 | 11.3 | 19.3 | 0.00 | 0.00 | 0.00 | 88 | 1011.2 |
| 20260507082204 | 19 | 1 | 11.3 | 19.3 | 0.00 | 0.00 | 0.00 | 88 | 1011.3 |
| 20260507082103 | 19 | 1 | 9.7 | 19.3 | 0.00 | 0.00 | 0.00 | 88 | 1011.2 |
| 20260507082003 | 19 | 0 | 9.7 | 19.3 | 0.00 | 0.00 | 0.00 | 88 | 1011.3 |
| 20260507081902 | 19 | 4 | 9.7 | 19.3 | 0.00 | 0.00 | 0.00 | 88 | 1011.2 |
| 20260507081802 | 19 | 0 | 8.0 | 19.3 | 0.00 | 0.00 | 0.00 | 88 | 1011.1 |
| 20260507081703 | 19 | 1 | 8.0 | 19.3 | 0.00 | 0.00 | 0.00 | 87 | 1011.0 |
| 20260507081603 | 19 | 0 | 11.3 | 19.3 | 0.00 | 0.00 | 0.00 | 87 | 1011.0 |
| 20260507081504 | 19 | 0 | 11.3 | 19.3 | 0.00 | 0.00 | 0.00 | 87 | 1010.9 |
| 20260507081402 | 19 | 0 | 11.3 | 19.3 | 0.00 | 0.00 | 0.00 | 87 | 1011.0 |
| 20260507081302 | 19 | 0 | 8.0 | 17.7 | 0.00 | 0.00 | 0.00 | 87 | 1010.9 |
| 20260507081202 | 19 | 48 | 8.0 | 17.7 | 0.00 | 0.00 | 0.00 | 87 | 1011.0 |
| 20260507081102 | 19 | 3 | 9.7 | 17.7 | 0.00 | 0.00 | 0.00 | 87 | 1010.9 |
| 20260507081003 | 19 | 1 | 8.0 | 17.7 | 0.00 | 0.00 | 0.00 | 87 | 1011.0 |
| 20260507080903 | 19 | 0 | 9.7 | 17.7 | 0.00 | 0.00 | 0.00 | 87 | 1011.0 |
| 20260507080801 | 19 | 3 | 11.3 | 17.7 | 0.00 | 0.00 | 0.00 | 87 | 1011.0 |
| 20260507080702 | 19 | 0 | 11.3 | 17.7 | 0.00 | 0.00 | 0.00 | 87 | 1010.9 |
| 20260507080602 | 19 | 1 | 9.7 | 17.7 | 0.00 | 0.00 | 0.00 | 87 | 1011.0 |
| 20260507080502 | 19 | 0 | 8.0 | 17.7 | 0.00 | 0.00 | 0.00 | 87 | 1011.1 |
| 20260507080402 | 19 | 4 | 8.0 | 17.7 | 0.00 | 0.00 | 0.00 | 87 | 1011.0 |
| 20260507080303 | 20 | 0 | 8.0 | 17.7 | 0.00 | 0.00 | 0.00 | 87 | 1011.0 |
| 20260507080203 | 19 | 1 | 6.4 | 17.7 | 0.00 | 0.00 | 0.00 | 87 | 1011.0 |
| 20260507080103 | 20 | 0 | 6.4 | 17.7 | 0.00 | 0.00 | 0.00 | 87 | 1011.0 |
| 20260507080003 | 20 | 0 | 6.4 | 17.7 | 0.00 | 0.00 | 0.00 | 87 | 1011.0 |
| 20260507075902 | 20 | 0 | 6.4 | 17.7 | 0.00 | 0.00 | 0.00 | 87 | 1011.0 |
| 20260507075802 | 20 | 0 | 8.0 | 17.7 | 0.00 | 0.00 | 0.00 | 87 | 1011.0 |
| 20260507075702 | 20 | 0 | 9.7 | 17.7 | 0.00 | 0.00 | 0.00 | 87 | 1011.0 |
| 20260507075601 | 20 | 0 | 9.7 | 17.7 | 0.00 | 0.00 | 0.00 | 87 | 1011.1 |
| 20260507075503 | 20 | 0 | 8.0 | 16.1 | 0.00 | 0.00 | 0.00 | 87 | 1011.2 |
| 20260507075403 | 20 | 0 | 8.0 | 17.7 | 0.00 | 0.00 | 0.00 | 87 | 1011.2 |
| 20260507075306 | 20 | 0 | 6.4 | 17.7 | 0.00 | 0.00 | 0.00 | 87 | 1011.2 |
| 20260507075202 | 20 | 0 | 8.0 | 17.7 | 0.00 | 0.00 | 0.00 | 87 | 1011.2 |
| 20260507075104 | 20 | 0 | 9.7 | 17.7 | 0.00 | 0.00 | 0.00 | 87 | 1011.3 |
| 20260507075003 | 20 | 48 | 9.7 | 19.3 | 0.00 | 0.00 | 0.00 | 87 | 1011.3 |
| 20260507074902 | 20 | 0 | 9.7 | 19.3 | 0.00 | 0.00 | 0.00 | 87 | 1011.2 |
| 20260507074804 | 20 | 0 | 9.7 | 19.3 | 0.00 | 0.00 | 0.00 | 87 | 1011.2 |
| 20260507074703 | 20 | 0 | 11.3 | 19.3 | 0.00 | 0.00 | 0.00 | 87 | 1011.2 |
| 20260507074603 | 20 | 0 | 9.7 | 19.3 | 0.00 | 0.00 | 0.00 | 87 | 1011.2 |
| 20260507074502 | 20 | 0 | 9.7 | 19.3 | 0.00 | 0.00 | 0.00 | 87 | 1011.2 |
| 20260507074402 | 20 | 1 | 11.3 | 19.3 | 0.00 | 0.00 | 0.00 | 87 | 1011.2 |
| 20260507074302 | 20 | 0 | 11.3 | 19.3 | 0.00 | 0.00 | 0.00 | 87 | 1011.3 |
| 20260507074202 | 20 | 0 | 11.3 | 19.3 | 0.00 | 0.00 | 0.00 | 87 | 1011.3 |
| 20260507074102 | 20 | 0 | 11.3 | 19.3 | 0.00 | 0.00 | 0.00 | 87 | 1011.3 |
| 20260507074002 | 20 | 3 | 8.0 | 14.5 | 0.00 | 0.00 | 0.00 | 87 | 1011.3 |
| 20260507073903 | 20 | 0 | 6.4 | 14.5 | 0.00 | 0.00 | 0.00 | 87 | 1011.2 |
| 20260507073802 | 20 | 0 | 6.4 | 14.5 | 0.00 | 0.00 | 0.00 | 87 | 1011.2 |
| 20260507073702 | 20 | 3 | 8.0 | 14.5 | 0.00 | 0.00 | 0.00 | 87 | 1011.2 |
| 20260507073603 | 20 | 0 | 8.0 | 14.5 | 0.00 | 0.00 | 0.00 | 87 | 1011.2 |
| 20260507073503 | 20 | 0 | 8.0 | 14.5 | 0.00 | 0.00 | 0.00 | 87 | 1011.2 |
| 20260507073402 | 20 | 0 | 8.0 | 14.5 | 0.00 | 0.00 | 0.00 | 87 | 1011.2 |
| 20260507073302 | 20 | 0 | 6.4 | 14.5 | 0.00 | 0.00 | 0.00 | 87 | 1011.2 |
| 20260507073203 | 20 | 3 | 6.4 | 14.5 | 0.00 | 0.00 | 0.00 | 87 | 1011.2 |
| 20260507073102 | 20 | 7 | 8.0 | 14.5 | 0.00 | 0.00 | 0.00 | 87 | 1011.2 |
| 20260507073002 | 20 | 0 | 8.0 | 19.3 | 0.00 | 0.00 | 0.00 | 87 | 1011.2 |
| 20260507072904 | 20 | 0 | 9.7 | 19.3 | 0.00 | 0.00 | 0.00 | 87 | 1011.2 |
| 20260507072802 | 20 | 0 | 6.4 | 19.3 | 0.00 | 0.00 | 0.00 | 87 | 1011.2 |
| 20260507072703 | 20 | 0 | 6.4 | 19.3 | 0.00 | 0.00 | 0.00 | 87 | 1011.2 |
| 20260507072602 | 20 | 0 | 6.4 | 19.3 | 0.00 | 0.00 | 0.00 | 87 | 1011.2 |
| 20260507072502 | 20 | 0 | 6.4 | 19.3 | 0.00 | 0.00 | 0.00 | 87 | 1011.3 |
| 20260507072402 | 20 | 0 | 6.4 | 19.3 | 0.00 | 0.00 | 0.00 | 87 | 1011.3 |
| 20260507072306 | 20 | 1 | 6.4 | 19.3 | 0.00 | 0.00 | 0.00 | 87 | 1011.4 |
| 20260507072202 | 20 | 0 | 9.7 | 19.3 | 0.00 | 0.00 | 0.00 | 87 | 1011.5 |
| 20260507072101 | 20 | 0 | 9.7 | 19.3 | 0.00 | 0.00 | 0.00 | 87 | 1011.5 |
| 20260507072001 | 20 | 0 | 8.0 | 17.7 | 0.00 | 0.00 | 0.00 | 87 | 1011.5 |
| 20260507071903 | 20 | 0 | 6.4 | 17.7 | 0.00 | 0.00 | 0.00 | 87 | 1011.6 |
| 20260507071802 | 20 | 4 | 6.4 | 17.7 | 0.00 | 0.00 | 0.00 | 87 | 1011.5 |
| 20260507071702 | 20 | 0 | 9.7 | 17.7 | 0.00 | 0.00 | 0.00 | 86 | 1011.5 |
| 20260507071601 | 20 | 0 | 11.3 | 17.7 | 0.00 | 0.00 | 0.00 | 87 | 1011.5 |
| 20260507071500 | 20 | 0 | 9.7 | 17.7 | 0.00 | 0.00 | 0.00 | 87 | 1011.5 |
| 20260507071401 | 20 | 0 | 6.4 | 17.7 | 0.00 | 0.00 | 0.00 | 87 | 1011.5 |
| 20260507071302 | 20 | 0 | 6.4 | 17.7 | 0.00 | 0.00 | 0.00 | 87 | 1011.6 |
| 20260507071159 | 20 | 0 | 6.4 | 17.7 | 0.00 | 0.00 | 0.00 | 86 | 1011.6 |
| 20260507071101 | 20 | 0 | 8.0 | 17.7 | 0.00 | 0.00 | 0.00 | 86 | 1011.6 |
| 20260507071000 | 20 | 0 | 8.0 | 17.7 | 0.00 | 0.00 | 0.00 | 86 | 1011.6 |
| 20260507070859 | 20 | 0 | 9.7 | 17.7 | 0.00 | 0.00 | 0.00 | 87 | 1011.5 |
| 20260507070759 | 20 | 0 | 11.3 | 17.7 | 0.00 | 0.00 | 0.00 | 86 | 1011.5 |
| 20260507070659 | 20 | 0 | 9.7 | 19.3 | 0.00 | 0.00 | 0.00 | 86 | 1011.4 |
| 20260507070556 | 20 | 0 | 9.7 | 19.3 | 0.00 | 0.00 | 0.00 | 87 | 1011.4 |
| 20260507070454 | 20 | 0 | 9.7 | 19.3 | 0.00 | 0.00 | 0.00 | 87 | 1011.5 |
| 20260507070353 | 20 | 0 | 9.7 | 19.3 | 0.00 | 0.00 | 0.00 | 86 | 1011.4 |
| 20260507070250 | 20 | 0 | 9.7 | 19.3 | 0.00 | 0.00 | 0.00 | 86 | 1011.3 |
| 20260507070147 | 20 | 0 | 8.0 | 19.3 | 0.00 | 0.00 | 0.00 | 86 | 1011.3 |
| 20260507070047 | 20 | 0 | 6.4 | 19.3 | 0.00 | 0.00 | 0.00 | 86 | 1011.4 |
| 20260507065947 | 20 | 0 | 6.4 | 19.3 | 0.00 | 0.00 | 0.00 | 86 | 1011.3 |
| 20260507065845 | 20 | 0 | 11.3 | 19.3 | 0.00 | 0.00 | 0.00 | 86 | 1011.4 |
| 20260507065743 | 20 | 0 | 12.9 | 19.3 | 0.00 | 0.00 | 0.00 | 86 | 1011.4 |
| 20260507065641 | 20 | 0 | 9.7 | 17.7 | 0.00 | 0.00 | 0.00 | 86 | 1011.4 |
| 20260507065540 | 20 | 4 | 8.0 | 17.7 | 0.00 | 0.00 | 0.00 | 86 | 1011.5 |
| 20260507065438 | 20 | 0 | 8.0 | 17.7 | 0.00 | 0.00 | 0.00 | 86 | 1011.5 |
| 20260507065337 | 20 | 0 | 11.3 | 17.7 | 0.00 | 0.00 | 0.00 | 86 | 1011.5 |
| 20260507065234 | 20 | 0 | 11.3 | 17.7 | 0.00 | 0.00 | 0.00 | 86 | 1011.6 |
| 20260507065132 | 20 | 0 | 9.7 | 17.7 | 0.00 | 0.00 | 0.00 | 86 | 1011.7 |
| 20260507065031 | 20 | 0 | 8.0 | 14.5 | 0.00 | 0.00 | 0.00 | 86 | 1011.6 |
| 20260507064931 | 20 | 0 | 8.0 | 14.5 | 0.00 | 0.00 | 0.00 | 86 | 1011.6 |
| 20260507064830 | 20 | 0 | 8.0 | 14.5 | 0.00 | 0.00 | 0.00 | 86 | 1011.5 |
| 20260507064732 | 20 | 0 | 6.4 | 14.5 | 0.00 | 0.00 | 0.00 | 86 | 1011.4 |
| 20260507064631 | 20 | 0 | 4.8 | 14.5 | 0.00 | 0.00 | 0.00 | 86 | 1011.3 |
| 20260507064531 | 20 | 0 | 6.4 | 14.5 | 0.00 | 0.00 | 0.00 | 86 | 1011.3 |
| 20260507064431 | 20 | 3 | 6.4 | 17.7 | 0.00 | 0.00 | 0.00 | 86 | 1011.2 |
| 20260507064333 | 20 | 0 | 8.0 | 17.7 | 0.00 | 0.00 | 0.00 | 86 | 1011.1 |
| 20260507064232 | 20 | 0 | 8.0 | 17.7 | 0.00 | 0.00 | 0.00 | 86 | 1011.2 |
| 20260507064131 | 20 | 0 | 8.0 | 20.9 | 0.00 | 0.00 | 0.00 | 86 | 1011.2 |
| 20260507064032 | 20 | 0 | 8.0 | 20.9 | 0.00 | 0.00 | 0.00 | 86 | 1011.2 |
| 20260507063932 | 20 | 0 | 6.4 | 20.9 | 0.00 | 0.00 | 0.00 | 86 | 1011.2 |
| 20260507063832 | 20 | 0 | 6.4 | 20.9 | 0.00 | 0.00 | 0.00 | 86 | 1011.3 |
| 20260507063731 | 20 | 0 | 9.7 | 20.9 | 0.00 | 0.00 | 0.00 | 86 | 1011.4 |
| 20260507063631 | 20 | 0 | 11.3 | 20.9 | 0.00 | 0.00 | 0.00 | 86 | 1011.4 |
| 20260507063532 | 20 | 0 | 9.7 | 20.9 | 0.00 | 0.00 | 0.00 | 86 | 1011.6 |
| 20260507063431 | 20 | 0 | 8.0 | 20.9 | 0.00 | 0.00 | 0.00 | 86 | 1011.6 |
| 20260507063332 | 20 | 0 | 9.7 | 20.9 | 0.00 | 0.00 | 0.00 | 86 | 1011.6 |
| 20260507063231 | 20 | 0 | 8.0 | 20.9 | 0.00 | 0.00 | 0.00 | 86 | 1011.6 |
| 20260507063130 | 20 | 0 | 8.0 | 20.9 | 0.00 | 0.00 | 0.00 | 86 | 1011.5 |
| 20260507063032 | 20 | 0 | 11.3 | 20.9 | 0.00 | 0.00 | 0.00 | 86 | 1011.5 |
| 20260507062933 | 20 | 0 | 11.3 | 20.9 | 0.00 | 0.00 | 0.00 | 86 | 1011.5 |
| 20260507062832 | 20 | 0 | 9.7 | 16.1 | 0.00 | 0.00 | 0.00 | 86 | 1011.4 |
| 20260507062731 | 20 | 0 | 9.7 | 16.1 | 0.00 | 0.00 | 0.00 | 86 | 1011.4 |
| 20260507062632 | 20 | 0 | 9.7 | 17.7 | 0.00 | 0.00 | 0.00 | 86 | 1011.3 |
| 20260507062531 | 20 | 0 | 9.7 | 17.7 | 0.00 | 0.00 | 0.00 | 86 | 1011.3 |
| 20260507062431 | 20 | 7 | 9.7 | 17.7 | 0.00 | 0.00 | 0.00 | 86 | 1011.2 |
| 20260507062333 | 20 | 0 | 8.0 | 17.7 | 0.00 | 0.00 | 0.00 | 86 | 1011.2 |
| 20260507062231 | 20 | 0 | 8.0 | 17.7 | 0.00 | 0.00 | 0.00 | 86 | 1011.1 |
| 20260507062130 | 20 | 0 | 9.7 | 17.7 | 0.00 | 0.00 | 0.00 | 86 | 1011.1 |
| 20260507062029 | 20 | 0 | 8.0 | 20.9 | 0.00 | 0.00 | 0.00 | 86 | 1011.1 |
| 20260507061927 | 20 | 0 | 8.0 | 20.9 | 0.00 | 0.00 | 0.00 | 86 | 1011.0 |
| 20260507061825 | 20 | 0 | 11.3 | 20.9 | 0.00 | 0.00 | 0.00 | 86 | 1011.1 |
| 20260507061723 | 20 | 0 | 11.3 | 20.9 | 0.00 | 0.00 | 0.00 | 86 | 1011.1 |
| 20260507061622 | 20 | 0 | 8.0 | 20.9 | 0.00 | 0.00 | 0.00 | 86 | 1011.2 |
| 20260507061520 | 20 | 1 | 6.4 | 20.9 | 0.00 | 0.00 | 0.00 | 86 | 1011.2 |
| 20260507061419 | 20 | 0 | 9.7 | 20.9 | 0.00 | 0.00 | 0.00 | 85 | 1011.3 |
| 20260507061318 | 20 | 0 | 12.9 | 20.9 | 0.00 | 0.00 | 0.00 | 85 | 1011.3 |
| 20260507061216 | 20 | 1 | 11.3 | 20.9 | 0.00 | 0.00 | 0.00 | 85 | 1011.3 |
| 20260507061114 | 20 | 1 | 9.7 | 19.3 | 0.00 | 0.00 | 0.00 | 85 | 1011.4 |
| 20260507061013 | 20 | 0 | 9.7 | 19.3 | 0.00 | 0.00 | 0.00 | 85 | 1011.3 |
| 20260507060912 | 20 | 0 | 11.3 | 20.9 | 0.00 | 0.00 | 0.00 | 85 | 1011.3 |
| 20260507060810 | 20 | 0 | 9.7 | 20.9 | 0.00 | 0.00 | 0.00 | 86 | 1011.3 |
| 20260507060709 | 20 | 0 | 8.0 | 20.9 | 0.00 | 0.00 | 0.00 | 86 | 1011.3 |
| 20260507060607 | 20 | 0 | 9.7 | 20.9 | 0.00 | 0.00 | 0.00 | 85 | 1011.3 |
| 20260507060506 | 20 | 3 | 11.3 | 20.9 | 0.00 | 0.00 | 0.00 | 86 | 1011.3 |
| 20260507060404 | 20 | 1 | 12.9 | 20.9 | 0.00 | 0.00 | 0.00 | 86 | 1011.3 |
| 20260507060301 | 20 | 0 | 8.0 | 20.9 | 0.00 | 0.00 | 0.00 | 85 | 1011.2 |
| 20260507060201 | 20 | 0 | 8.0 | 20.9 | 0.00 | 0.00 | 0.00 | 86 | 1011.2 |
| 20260507060104 | 20 | 4 | 9.7 | 20.9 | 0.00 | 0.00 | 0.00 | 85 | 1011.3 |
| 20260507060004 | 20 | 0 | 11.3 | 20.9 | 0.00 | 0.00 | 0.00 | 85 | 1011.3 |
| 20260507055903 | 20 | 1 | 11.3 | 20.9 | 0.00 | 0.00 | 0.00 | 85 | 1011.3 |
| 20260507055802 | 20 | 0 | 14.5 | 20.9 | 0.00 | 0.00 | 0.00 | 85 | 1011.3 |
| 20260507055702 | 20 | 0 | 12.9 | 20.9 | 0.00 | 0.00 | 0.00 | 85 | 1011.3 |
| 20260507055604 | 20 | 0 | 9.7 | 19.3 | 0.00 | 0.00 | 0.00 | 85 | 1011.3 |
| 20260507055502 | 20 | 0 | 8.0 | 19.3 | 0.00 | 0.00 | 0.00 | 85 | 1011.3 |
| 20260507055402 | 20 | 0 | 8.0 | 19.3 | 0.00 | 0.00 | 0.00 | 85 | 1011.3 |
| 20260507055305 | 20 | 0 | 8.0 | 19.3 | 0.00 | 0.00 | 0.00 | 85 | 1011.3 |
| 20260507055202 | 20 | 0 | 8.0 | 19.3 | 0.00 | 0.00 | 0.00 | 85 | 1011.3 |
| 20260507055103 | 20 | 4 | 9.7 | 19.3 | 0.00 | 0.00 | 0.00 | 85 | 1011.3 |
| 20260507055003 | 20 | 0 | 8.0 | 19.3 | 0.00 | 0.00 | 0.00 | 85 | 1011.3 |
| 20260507054902 | 20 | 1 | 8.0 | 19.3 | 0.00 | 0.00 | 0.00 | 85 | 1011.2 |
| 20260507054802 | 20 | 0 | 11.3 | 19.3 | 0.00 | 0.00 | 0.00 | 85 | 1011.2 |
| 20260507054702 | 20 | 0 | 9.7 | 19.3 | 0.00 | 0.00 | 0.00 | 85 | 1011.1 |
| 20260507054602 | 20 | 0 | 8.0 | 19.3 | 0.00 | 0.00 | 0.00 | 85 | 1011.1 |
| 20260507054503 | 20 | 0 | 8.0 | 19.3 | 0.00 | 0.00 | 0.00 | 85 | 1011.0 |
| 20260507054402 | 20 | 0 | 8.0 | 19.3 | 0.00 | 0.00 | 0.00 | 85 | 1011.0 |
| 20260507054303 | 20 | 0 | 9.7 | 19.3 | 0.00 | 0.00 | 0.00 | 85 | 1010.9 |
| 20260507054202 | 20 | 0 | 8.0 | 19.3 | 0.00 | 0.00 | 0.00 | 85 | 1011.0 |
| 20260507054102 | 20 | 0 | 6.4 | 19.3 | 0.00 | 0.00 | 0.00 | 85 | 1010.9 |
| 20260507054004 | 20 | 0 | 8.0 | 19.3 | 0.00 | 0.00 | 0.00 | 85 | 1010.9 |
| 20260507053903 | 20 | 1 | 9.7 | 19.3 | 0.00 | 0.00 | 0.00 | 85 | 1010.9 |
| 20260507053802 | 20 | 0 | 8.0 | 19.3 | 0.00 | 0.00 | 0.00 | 85 | 1011.0 |
| 20260507053703 | 20 | 0 | 9.7 | 19.3 | 0.00 | 0.00 | 0.00 | 85 | 1011.0 |
| 20260507053603 | 20 | 3 | 9.7 | 19.3 | 0.00 | 0.00 | 0.00 | 85 | 1011.0 |
| 20260507053504 | 20 | 0 | 8.0 | 19.3 | 0.00 | 0.00 | 0.00 | 85 | 1011.0 |
| 20260507053403 | 20 | 0 | 9.7 | 19.3 | 0.00 | 0.00 | 0.00 | 85 | 1011.0 |
| 20260507053304 | 20 | 0 | 9.7 | 19.3 | 0.00 | 0.00 | 0.00 | 85 | 1011.0 |
| 20260507053203 | 20 | 0 | 8.0 | 19.3 | 0.00 | 0.00 | 0.00 | 85 | 1011.0 |
| 20260507053103 | 20 | 0 | 6.4 | 19.3 | 0.00 | 0.00 | 0.00 | 85 | 1010.9 |
| 20260507053003 | 20 | 0 | 9.7 | 19.3 | 0.00 | 0.00 | 0.00 | 85 | 1010.9 |
| 20260507052902 | 20 | 0 | 9.7 | 19.3 | 0.00 | 0.00 | 0.00 | 85 | 1010.9 |
| 20260507052803 | 20 | 0 | 9.7 | 19.3 | 0.00 | 0.00 | 0.00 | 85 | 1011.0 |
| 20260507052701 | 20 | 0 | 9.7 | 19.3 | 0.00 | 0.00 | 0.00 | 85 | 1011.0 |
| 20260507052603 | 20 | 0 | 9.7 | 19.3 | 0.00 | 0.00 | 0.00 | 85 | 1011.1 |
| 20260507052504 | 20 | 0 | 9.7 | 20.9 | 0.00 | 0.00 | 0.00 | 85 | 1011.0 |
| 20260507052402 | 20 | 0 | 11.3 | 20.9 | 0.00 | 0.00 | 0.00 | 85 | 1011.0 |
| 20260507052305 | 20 | 0 | 11.3 | 20.9 | 0.00 | 0.00 | 0.00 | 85 | 1011.0 |
| 20260507052202 | 20 | 0 | 11.3 | 20.9 | 0.00 | 0.00 | 0.00 | 85 | 1011.0 |
| 20260507052102 | 20 | 0 | 9.7 | 20.9 | 0.00 | 0.00 | 0.00 | 85 | 1011.0 |
| 20260507052003 | 20 | 0 | 8.0 | 20.9 | 0.00 | 0.00 | 0.00 | 85 | 1011.1 |
| 20260507051904 | 20 | 0 | 9.7 | 20.9 | 0.00 | 0.00 | 0.00 | 85 | 1011.0 |
| 20260507051803 | 20 | 0 | 9.7 | 20.9 | 0.00 | 0.00 | 0.00 | 85 | 1011.0 |
| 20260507051702 | 20 | 4 | 11.3 | 20.9 | 0.00 | 0.00 | 0.00 | 85 | 1011.1 |
| 20260507051603 | 21 | 0 | 8.0 | 20.9 | 0.00 | 0.00 | 0.00 | 85 | 1011.1 |
| 20260507051504 | 20 | 0 | 6.4 | 17.7 | 0.00 | 0.00 | 0.00 | 85 | 1011.2 |
| 20260507051402 | 21 | 0 | 9.7 | 17.7 | 0.00 | 0.00 | 0.00 | 85 | 1011.1 |
| 20260507051302 | 21 | 0 | 11.3 | 17.7 | 0.00 | 0.00 | 0.00 | 85 | 1011.2 |
| 20260507051203 | 21 | 0 | 11.3 | 17.7 | 0.00 | 0.00 | 0.00 | 85 | 1011.2 |
| 20260507051102 | 21 | 0 | 9.7 | 17.7 | 0.00 | 0.00 | 0.00 | 85 | 1011.2 |
| 20260507051003 | 21 | 0 | 9.7 | 17.7 | 0.00 | 0.00 | 0.00 | 85 | 1011.1 |
| 20260507050905 | 21 | 3 | 8.0 | 17.7 | 0.00 | 0.00 | 0.00 | 85 | 1011.2 |
| 20260507050802 | 21 | 0 | 8.0 | 17.7 | 0.00 | 0.00 | 0.00 | 85 | 1011.1 |
| 20260507050703 | 21 | 3 | 6.4 | 17.7 | 0.00 | 0.00 | 0.00 | 85 | 1011.1 |
| 20260507050602 | 21 | 1 | 6.4 | 17.7 | 0.00 | 0.00 | 0.00 | 85 | 1011.0 |
| 20260507050501 | 21 | 0 | 6.4 | 17.7 | 0.00 | 0.00 | 0.00 | 85 | 1011.0 |
| 20260507050401 | 21 | 0 | 8.0 | 17.7 | 0.00 | 0.00 | 0.00 | 85 | 1011.1 |
| 20260507050300 | 21 | 0 | 11.3 | 17.7 | 0.00 | 0.00 | 0.00 | 85 | 1011.1 |
| 20260507050157 | 21 | 0 | 9.7 | 17.7 | 0.00 | 0.00 | 0.00 | 86 | 1011.0 |
| 20260507050056 | 21 | 0 | 8.0 | 17.7 | 0.00 | 0.00 | 0.00 | 86 | 1011.0 |
| 20260507045957 | 21 | 0 | 8.0 | 16.1 | 0.00 | 0.00 | 0.00 | 86 | 1011.1 |
| 20260507045857 | 21 | 0 | 8.0 | 16.1 | 0.00 | 0.00 | 0.00 | 86 | 1011.0 |
| 20260507045757 | 21 | 0 | 6.4 | 16.1 | 0.00 | 0.00 | 0.00 | 86 | 1011.1 |
| 20260507045656 | 21 | 0 | 6.4 | 16.1 | 0.00 | 0.00 | 0.00 | 86 | 1011.1 |
| 20260507045555 | 21 | 0 | 6.4 | 16.1 | 0.00 | 0.00 | 0.00 | 86 | 1011.1 |
| 20260507045457 | 21 | 0 | 6.4 | 16.1 | 0.00 | 0.00 | 0.00 | 86 | 1011.1 |
| 20260507045356 | 21 | 0 | 6.4 | 16.1 | 0.00 | 0.00 | 0.00 | 86 | 1011.1 |
| 20260507045256 | 21 | 0 | 9.7 | 16.1 | 0.00 | 0.00 | 0.00 | 85 | 1011.0 |
| 20260507045156 | 21 | 0 | 11.3 | 16.1 | 0.00 | 0.00 | 0.00 | 85 | 1011.1 |
| 20260507045057 | 21 | 0 | 11.3 | 16.1 | 0.00 | 0.00 | 0.00 | 85 | 1011.1 |
| 20260507044956 | 21 | 0 | 9.7 | 17.7 | 0.00 | 0.00 | 0.00 | 85 | 1011.1 |
| 20260507044856 | 21 | 0 | 6.4 | 17.7 | 0.00 | 0.00 | 0.00 | 85 | 1011.1 |
| 20260507044757 | 21 | 0 | 4.8 | 17.7 | 0.00 | 0.00 | 0.00 | 85 | 1011.0 |
| 20260507044656 | 21 | 4 | 4.8 | 17.7 | 0.00 | 0.00 | 0.00 | 85 | 1011.0 |
| 20260507044556 | 21 | 0 | 6.4 | 17.7 | 0.00 | 0.00 | 0.00 | 85 | 1011.0 |
| 20260507044457 | 21 | 0 | 8.0 | 17.7 | 0.00 | 0.00 | 0.00 | 85 | 1011.0 |
| 20260507044356 | 21 | 0 | 8.0 | 17.7 | 0.00 | 0.00 | 0.00 | 85 | 1010.9 |
| 20260507044256 | 21 | 0 | 8.0 | 22.5 | 0.00 | 0.00 | 0.00 | 85 | 1010.8 |
| 20260507044156 | 21 | 0 | 9.7 | 22.5 | 0.00 | 0.00 | 0.00 | 85 | 1010.8 |
| 20260507044057 | 21 | 0 | 9.7 | 22.5 | 0.00 | 0.00 | 0.00 | 85 | 1010.8 |
| 20260507043958 | 21 | 0 | 9.7 | 22.5 | 0.00 | 0.00 | 0.00 | 85 | 1010.8 |
| 20260507043856 | 21 | 4 | 9.7 | 22.5 | 0.00 | 0.00 | 0.00 | 85 | 1010.7 |
| 20260507043756 | 21 | 3 | 9.7 | 22.5 | 0.00 | 0.00 | 0.00 | 85 | 1010.6 |
| 20260507043657 | 21 | 8 | 9.7 | 22.5 | 0.00 | 0.00 | 0.00 | 85 | 1010.6 |
| 20260507043557 | 21 | 6 | 9.7 | 22.5 | 0.00 | 0.00 | 0.00 | 85 | 1010.6 |
| 20260507043456 | 21 | 0 | 12.9 | 22.5 | 0.00 | 0.00 | 0.00 | 85 | 1010.7 |
| 20260507043357 | 21 | 0 | 12.9 | 22.5 | 0.00 | 0.00 | 0.00 | 85 | 1010.6 |
| 20260507043256 | 21 | 0 | 8.0 | 19.3 | 0.00 | 0.00 | 0.00 | 85 | 1010.7 |
| 20260507043155 | 21 | 0 | 8.0 | 19.3 | 0.00 | 0.00 | 0.00 | 85 | 1010.8 |
| 20260507043057 | 21 | 0 | 9.7 | 19.3 | 0.00 | 0.00 | 0.00 | 85 | 1010.9 |
| 20260507042956 | 21 | 68 | 9.7 | 19.3 | 0.00 | 0.00 | 0.00 | 85 | 1010.8 |
| 20260507042856 | 21 | 1 | 9.7 | 19.3 | 0.00 | 0.00 | 0.00 | 85 | 1011.0 |
| 20260507042756 | 21 | 0 | 11.3 | 19.3 | 0.00 | 0.00 | 0.00 | 85 | 1010.9 |
| 20260507042658 | 21 | 0 | 11.3 | 19.3 | 0.00 | 0.00 | 0.00 | 85 | 1010.9 |
| 20260507042556 | 21 | 1 | 9.7 | 19.3 | 0.00 | 0.00 | 0.00 | 85 | 1010.9 |
| 20260507042458 | 21 | 1 | 8.0 | 16.1 | 0.00 | 0.00 | 0.00 | 85 | 1010.9 |
| 20260507042357 | 21 | 0 | 6.4 | 16.1 | 0.00 | 0.00 | 0.00 | 85 | 1011.0 |
| 20260507042255 | 21 | 0 | 6.4 | 16.1 | 0.00 | 0.00 | 0.00 | 85 | 1011.0 |
| 20260507042156 | 21 | 0 | 4.8 | 16.1 | 0.00 | 0.00 | 0.00 | 85 | 1011.1 |
| 20260507042053 | 21 | 0 | 6.4 | 17.7 | 0.00 | 0.00 | 0.00 | 85 | 1011.1 |
| 20260507041952 | 21 | 0 | 8.0 | 17.7 | 0.00 | 0.00 | 0.00 | 85 | 1011.0 |
| 20260507041850 | 21 | 0 | 8.0 | 17.7 | 0.00 | 0.00 | 0.00 | 85 | 1011.0 |
| 20260507041749 | 21 | 0 | 8.0 | 17.7 | 0.00 | 0.00 | 0.00 | 85 | 1011.0 |
| 20260507041647 | 21 | 0 | 6.4 | 19.3 | 0.00 | 0.00 | 0.00 | 85 | 1011.0 |
| 20260507041546 | 21 | 1 | 8.0 | 19.3 | 0.00 | 0.00 | 0.00 | 85 | 1010.9 |
| 20260507041446 | 21 | 0 | 9.7 | 19.3 | 0.00 | 0.00 | 0.00 | 85 | 1011.0 |
| 20260507041345 | 21 | 0 | 9.7 | 19.3 | 0.00 | 0.00 | 0.00 | 85 | 1011.0 |
| 20260507041242 | 21 | 0 | 11.3 | 19.3 | 0.00 | 0.00 | 0.00 | 85 | 1011.0 |
| 20260507041141 | 21 | 0 | 9.7 | 19.3 | 0.00 | 0.00 | 0.00 | 85 | 1011.0 |
| 20260507041040 | 21 | 0 | 9.7 | 19.3 | 0.00 | 0.00 | 0.00 | 85 | 1011.0 |
| 20260507040939 | 21 | 0 | 11.3 | 19.3 | 0.00 | 0.00 | 0.00 | 85 | 1011.0 |
| 20260507040836 | 21 | 0 | 11.3 | 19.3 | 0.00 | 0.00 | 0.00 | 85 | 1011.0 |
| 20260507040737 | 21 | 0 | 9.7 | 19.3 | 0.00 | 0.00 | 0.00 | 85 | 1011.0 |
| 20260507040635 | 21 | 0 | 9.7 | 19.3 | 0.00 | 0.00 | 0.00 | 85 | 1011.1 |
| 20260507040531 | 21 | 0 | 11.3 | 19.3 | 0.00 | 0.00 | 0.00 | 85 | 1011.1 |
| 20260507040433 | 21 | 0 | 11.3 | 19.3 | 0.00 | 0.00 | 0.00 | 85 | 1011.0 |
| 20260507040333 | 21 | 0 | 11.3 | 19.3 | 0.00 | 0.00 | 0.00 | 85 | 1011.0 |
| 20260507040233 | 21 | 0 | 11.3 | 22.5 | 0.00 | 0.00 | 0.00 | 85 | 1011.0 |
| 20260507040130 | 21 | 0 | 12.9 | 22.5 | 0.00 | 0.00 | 0.00 | 85 | 1011.0 |
| 20260507040032 | 21 | 0 | 11.3 | 22.5 | 0.00 | 0.00 | 0.00 | 85 | 1011.0 |
| 20260507035932 | 21 | 0 | 9.7 | 22.5 | 0.00 | 0.00 | 0.00 | 85 | 1011.0 |
| 20260507035830 | 21 | 0 | 9.7 | 22.5 | 0.00 | 0.00 | 0.00 | 85 | 1011.0 |
| 20260507035731 | 21 | 0 | 8.0 | 22.5 | 0.00 | 0.00 | 0.00 | 85 | 1011.0 |
| 20260507035631 | 21 | 0 | 6.4 | 22.5 | 0.00 | 0.00 | 0.00 | 85 | 1010.9 |
| 20260507035532 | 21 | 0 | 6.4 | 22.5 | 0.00 | 0.00 | 0.00 | 85 | 1010.9 |
| 20260507035432 | 21 | 0 | 9.7 | 22.5 | 0.00 | 0.00 | 0.00 | 85 | 1010.9 |
| 20260507035330 | 22 | 0 | 11.3 | 22.5 | 0.00 | 0.00 | 0.00 | 85 | 1010.8 |
| 20260507035232 | 21 | 0 | 8.0 | 20.9 | 0.00 | 0.00 | 0.00 | 86 | 1010.9 |
| 20260507035131 | 22 | 0 | 8.0 | 20.9 | 0.00 | 0.00 | 0.00 | 86 | 1010.8 |
| 20260507035031 | 22 | 0 | 11.3 | 20.9 | 0.00 | 0.00 | 0.00 | 86 | 1010.8 |
| 20260507034932 | 22 | 0 | 11.3 | 20.9 | 0.00 | 0.00 | 0.00 | 86 | 1010.8 |
| 20260507034831 | 22 | 0 | 9.7 | 20.9 | 0.00 | 0.00 | 0.00 | 86 | 1010.8 |
| 20260507034730 | 22 | 3 | 8.0 | 20.9 | 0.00 | 0.00 | 0.00 | 86 | 1010.8 |
| 20260507034632 | 22 | 0 | 9.7 | 20.9 | 0.00 | 0.00 | 0.00 | 86 | 1010.8 |
| 20260507034531 | 22 | 0 | 11.3 | 20.9 | 0.00 | 0.00 | 0.00 | 86 | 1010.7 |
| 20260507034431 | 22 | 0 | 12.9 | 20.9 | 0.00 | 0.00 | 0.00 | 86 | 1010.8 |
| 20260507034328 | 22 | 3 | 12.9 | 20.9 | 0.00 | 0.00 | 0.00 | 86 | 1010.7 |
| 20260507034224 | 22 | 0 | 11.3 | 20.9 | 0.00 | 0.00 | 0.00 | 86 | 1010.6 |
| 20260507034123 | 22 | 0 | 11.3 | 19.3 | 0.00 | 0.00 | 0.00 | 86 | 1010.7 |
| 20260507034020 | 22 | 0 | 11.3 | 19.3 | 0.00 | 0.00 | 0.00 | 86 | 1010.6 |
| 20260507033920 | 22 | 0 | 8.0 | 19.3 | 0.00 | 0.00 | 0.00 | 86 | 1010.6 |
| 20260507033814 | 22 | 0 | 9.7 | 19.3 | 0.00 | 0.00 | 0.00 | 86 | 1010.6 |
| 20260507033715 | 22 | 0 | 11.3 | 19.3 | 0.00 | 0.00 | 0.00 | 86 | 1010.6 |
| 20260507033613 | 22 | 0 | 11.3 | 19.3 | 0.00 | 0.00 | 0.00 | 86 | 1010.5 |
| 20260507033511 | 22 | 0 | 11.3 | 19.3 | 0.00 | 0.00 | 0.00 | 86 | 1010.5 |
| 20260507033406 | 22 | 0 | 9.7 | 19.3 | 0.00 | 0.00 | 0.00 | 86 | 1010.4 |
| 20260507033305 | 22 | 0 | 8.0 | 17.7 | 0.00 | 0.00 | 0.00 | 86 | 1010.3 |
| 20260507033202 | 22 | 0 | 9.7 | 17.7 | 0.00 | 0.00 | 0.00 | 86 | 1010.4 |
| 20260507033102 | 22 | 1 | 9.7 | 17.7 | 0.00 | 0.00 | 0.00 | 86 | 1010.4 |
| 20260507033002 | 22 | 0 | 9.7 | 17.7 | 0.00 | 0.00 | 0.00 | 86 | 1010.3 |
| 20260507032903 | 22 | 0 | 9.7 | 17.7 | 0.00 | 0.00 | 0.00 | 86 | 1010.3 |
| 20260507032802 | 22 | 0 | 8.0 | 17.7 | 0.00 | 0.00 | 0.00 | 86 | 1010.3 |
| 20260507032702 | 22 | 0 | 8.0 | 16.1 | 0.00 | 0.00 | 0.00 | 86 | 1010.3 |
| 20260507032604 | 22 | 0 | 8.0 | 16.1 | 0.00 | 0.00 | 0.00 | 86 | 1010.3 |
| 20260507032504 | 22 | 0 | 6.4 | 16.1 | 0.00 | 0.00 | 0.00 | 86 | 1010.3 |
| 20260507032402 | 22 | 0 | 6.4 | 16.1 | 0.00 | 0.00 | 0.00 | 87 | 1010.3 |
| 20260507032305 | 22 | 0 | 8.0 | 17.7 | 0.00 | 0.00 | 0.00 | 86 | 1010.1 |
| 20260507032203 | 22 | 0 | 9.7 | 17.7 | 0.00 | 0.00 | 0.00 | 87 | 1010.2 |
| 20260507032102 | 22 | 0 | 8.0 | 17.7 | 0.00 | 0.00 | 0.00 | 87 | 1010.1 |
| 20260507032003 | 22 | 0 | 8.0 | 17.7 | 0.00 | 0.00 | 0.00 | 87 | 1010.2 |
| 20260507031903 | 22 | 0 | 6.4 | 17.7 | 0.00 | 0.00 | 0.00 | 87 | 1010.2 |
| 20260507031802 | 22 | 0 | 6.4 | 19.3 | 0.00 | 0.00 | 0.00 | 87 | 1010.2 |
| 20260507031702 | 22 | 0 | 6.4 | 19.3 | 0.00 | 0.00 | 0.00 | 87 | 1010.1 |
| 20260507031603 | 22 | 0 | 9.7 | 19.3 | 0.00 | 0.00 | 0.00 | 87 | 1010.0 |
| 20260507031503 | 22 | 0 | 9.7 | 19.3 | 0.00 | 0.00 | 0.00 | 87 | 1010.0 |
| 20260507031404 | 22 | 0 | 9.7 | 19.3 | 0.00 | 0.00 | 0.00 | 87 | 1010.0 |
| 20260507031304 | 22 | 0 | 8.0 | 19.3 | 0.00 | 0.00 | 0.00 | 87 | 1010.1 |
| 20260507031203 | 22 | 0 | 8.0 | 19.3 | 0.00 | 0.00 | 0.00 | 87 | 1010.0 |
| 20260507031102 | 22 | 0 | 9.7 | 19.3 | 0.00 | 0.00 | 0.00 | 87 | 1009.9 |
| 20260507031002 | 22 | 0 | 11.3 | 19.3 | 0.00 | 0.00 | 0.00 | 87 | 1009.9 |
| 20260507030903 | 22 | 0 | 12.9 | 19.3 | 0.00 | 0.00 | 0.00 | 87 | 1009.9 |
| 20260507030802 | 22 | 0 | 11.3 | 19.3 | 0.00 | 0.00 | 0.00 | 87 | 1009.9 |
| 20260507030702 | 22 | 0 | 9.7 | 19.3 | 0.00 | 0.00 | 0.00 | 87 | 1009.9 |
| 20260507030604 | 22 | 0 | 9.7 | 19.3 | 0.00 | 0.00 | 0.00 | 87 | 1009.8 |
| 20260507030503 | 22 | 0 | 11.3 | 17.7 | 0.00 | 0.00 | 0.00 | 87 | 1009.8 |
| 20260507030402 | 22 | 0 | 12.9 | 17.7 | 0.00 | 0.00 | 0.00 | 88 | 1009.8 |
| 20260507030302 | 22 | 0 | 9.7 | 17.7 | 0.00 | 0.00 | 0.00 | 88 | 1009.8 |
| 20260507030204 | 22 | 0 | 8.0 | 16.1 | 0.00 | 0.00 | 0.00 | 88 | 1009.8 |